<?xml version="1.0" encoding="UTF-8" standalone="no" ?>
<gpx xmlns="http://www.topografix.com/GPX/1/1" xmlns:xsi="http://www.w3.org/2001/XMLSchema-instance" xsi:schemaLocation="http://www.topografix.com/GPX/1/1 http://www.topografix.com/GPX/1/1/gpx.xsd" version="1.1" creator="VisuGPX - https://www.visugpx.com">
  <metadata>
    <name>Refuge d\'EnBeys par SOM</name>
    <desc><![CDATA[Le service SOM d\'ATR effectue sa rando annuelle : cette année le refuge d\'En Beys]]></desc>
  </metadata>
  <wpt lat="43.6406" lon="1.37749">
    <ele>197.68</ele>
    <name><![CDATA[001]]></name>
  </wpt>
  <wpt lat="43.6406" lon="1.37749">
    <ele>197.68</ele>
    <name><![CDATA[002]]></name>
  </wpt>
  <wpt lat="43.64658" lon="1.35136">
    <ele>136.87</ele>
    <name><![CDATA[003]]></name>
  </wpt>
  <wpt lat="43.64625" lon="1.42941">
    <ele>129.66</ele>
    <name><![CDATA[006]]></name>
  </wpt>
  <wpt lat="43.64618" lon="1.47153">
    <ele>130.62</ele>
    <name><![CDATA[007]]></name>
  </wpt>
  <wpt lat="43.63995" lon="1.37782">
    <ele>156.1</ele>
    <name><![CDATA[008]]></name>
  </wpt>
  <wpt lat="44.05513" lon="1.66399">
    <ele>148.65</ele>
    <name><![CDATA[009]]></name>
  </wpt>
  <wpt lat="43.5984" lon="1.18678">
    <ele>237.33</ele>
    <name><![CDATA[010]]></name>
  </wpt>
  <wpt lat="43.5984" lon="1.1868">
    <ele>236.61</ele>
    <name><![CDATA[011]]></name>
  </wpt>
  <wpt lat="43.60112" lon="1.16603">
    <ele>289.96</ele>
    <name><![CDATA[012]]></name>
  </wpt>
  <wpt lat="43.45539" lon="1.28507">
    <ele>180.37</ele>
    <name><![CDATA[013]]></name>
  </wpt>
  <wpt lat="43.17149" lon="2.6426">
    <ele>144.08</ele>
    <name><![CDATA[014]]></name>
  </wpt>
  <wpt lat="43.14788" lon="2.62817">
    <ele>594.94</ele>
    <name><![CDATA[015]]></name>
  </wpt>
  <wpt lat="43.60789" lon="1.44192">
    <ele>147.93</ele>
    <name><![CDATA[016]]></name>
  </wpt>
  <wpt lat="43.64048" lon="1.37749">
    <ele>147.93</ele>
    <name><![CDATA[017]]></name>
  </wpt>
  <wpt lat="43.41991" lon="2.11182">
    <ele>617.29</ele>
    <name><![CDATA[018]]></name>
  </wpt>
  <wpt lat="43.40873" lon="2.0805">
    <ele>605.75</ele>
    <name><![CDATA[019]]></name>
  </wpt>
  <wpt lat="43.63986" lon="1.37794">
    <ele>130.38</ele>
    <name><![CDATA[020]]></name>
  </wpt>
  <wpt lat="43.58877" lon="1.43055">
    <ele>151.53</ele>
    <name><![CDATA[021]]></name>
  </wpt>
  <wpt lat="44.01075" lon="1.98139">
    <ele>283.47</ele>
    <name><![CDATA[022]]></name>
  </wpt>
  <wpt lat="44.01074" lon="1.98145">
    <ele>283.47</ele>
    <name><![CDATA[023]]></name>
  </wpt>
  <wpt lat="43.63959" lon="1.37798">
    <ele>203.44</ele>
    <name><![CDATA[024]]></name>
  </wpt>
  <wpt lat="44.02274" lon="1.72102">
    <ele>411.81</ele>
    <name><![CDATA[025]]></name>
  </wpt>
  <wpt lat="43.99447" lon="1.71359">
    <ele>233.96</ele>
    <name><![CDATA[026]]></name>
  </wpt>
  <wpt lat="43.77243" lon="2.33009">
    <ele>448.82</ele>
    <name><![CDATA[027]]></name>
  </wpt>
  <wpt lat="43.79771" lon="2.35107">
    <ele>324.33</ele>
    <name><![CDATA[028]]></name>
  </wpt>
  <wpt lat="43.79758" lon="2.35132">
    <ele>329.37</ele>
    <name><![CDATA[029]]></name>
  </wpt>
  <wpt lat="43.77274" lon="2.33008">
    <ele>426.95</ele>
    <name><![CDATA[030]]></name>
  </wpt>
  <wpt lat="42.75647" lon="1.84109">
    <ele>1445.22</ele>
    <name><![CDATA[031]]></name>
  </wpt>
  <wpt lat="42.75516" lon="1.84278">
    <ele>1463.96</ele>
    <name><![CDATA[032]]></name>
  </wpt>
  <wpt lat="42.74706" lon="1.86587">
    <ele>1724.96</ele>
    <name><![CDATA[033]]></name>
  </wpt>
  <wpt lat="42.52297" lon="2.22161">
    <ele>847.28</ele>
    <name><![CDATA[034]]></name>
  </wpt>
  <wpt lat="42.50294" lon="2.2306">
    <ele>1187.34</ele>
    <name><![CDATA[035]]></name>
  </wpt>
  <wpt lat="43.63985" lon="1.37729">
    <ele>157.3</ele>
    <name><![CDATA[036]]></name>
  </wpt>
  <wpt lat="43.51772" lon="1.45337">
    <ele>262.08</ele>
    <name><![CDATA[037]]></name>
  </wpt>
  <wpt lat="42.94104" lon="1.70562">
    <ele>602.15</ele>
    <name><![CDATA[038]]></name>
  </wpt>
  <wpt lat="43.56608" lon="1.30436">
    <ele>164.75</ele>
    <name><![CDATA[039]]></name>
  </wpt>
  <wpt lat="43.566" lon="1.30442">
    <ele>164.75</ele>
    <name><![CDATA[040]]></name>
  </wpt>
  <wpt lat="43.84273" lon="2.08345">
    <ele>238.53</ele>
    <name><![CDATA[041]]></name>
  </wpt>
  <wpt lat="43.84274" lon="2.08345">
    <ele>238.53</ele>
    <name><![CDATA[042]]></name>
  </wpt>
  <wpt lat="43.54795" lon="1.45382">
    <ele>232.52</ele>
    <name><![CDATA[043]]></name>
  </wpt>
  <wpt lat="43.10582" lon="0.61792">
    <ele>401.47</ele>
    <name><![CDATA[044]]></name>
  </wpt>
  <wpt lat="43.10579" lon="0.61796">
    <ele>411.81</ele>
    <name><![CDATA[045]]></name>
  </wpt>
  <wpt lat="31.62925" lon="-7.9902">
    <ele>487.27</ele>
    <name><![CDATA[046]]></name>
  </wpt>
  <wpt lat="31.62762" lon="-7.99034">
    <ele>500.49</ele>
    <name><![CDATA[047]]></name>
  </wpt>
  <wpt lat="31.23534" lon="-7.66435">
    <ele>1387.06</ele>
    <name><![CDATA[048]]></name>
  </wpt>
  <wpt lat="38.85555" lon="-94.79902">
    <ele>3.01</ele>
    <name><![CDATA[GARMIN]]></name>
  </wpt>
  <wpt lat="50.98288" lon="-1.4639">
    <ele>3.01</ele>
    <name><![CDATA[GRMEUR]]></name>
  </wpt>
  <wpt lat="25.06178" lon="121.64027">
    <ele>3.01</ele>
    <name><![CDATA[GRMTWN]]></name>
  </wpt>
  <wpt lat="43.61173" lon="1.32782">
    <ele>107.31</ele>
    <name><![CDATA[MAP]]></name>
  </wpt>
  <trk>
    <name><![CDATA[ACTIVE LOG: 10 OCT 2015 09:24]]></name>
    <trkseg>
      <trkpt lat="42.67906" lon="1.94969">
        <ele>1141.22</ele>
        <time>2015-10-10T09:24:24Z</time>
      </trkpt>
      <trkpt lat="42.67901" lon="1.94931">
        <ele>1140.74</ele>
        <time>2015-10-10T09:25:01Z</time>
      </trkpt>
      <trkpt lat="42.67894" lon="1.94948">
        <ele>1140.74</ele>
        <time>2015-10-10T09:25:43Z</time>
      </trkpt>
      <trkpt lat="42.67898" lon="1.94954">
        <ele>1140.26</ele>
        <time>2015-10-10T09:26:02Z</time>
      </trkpt>
      <trkpt lat="42.67897" lon="1.94962">
        <ele>1139.78</ele>
        <time>2015-10-10T09:26:35Z</time>
      </trkpt>
      <trkpt lat="42.67896" lon="1.94962">
        <ele>1139.78</ele>
        <time>2015-10-10T09:27:24Z</time>
      </trkpt>
      <trkpt lat="42.67894" lon="1.94961">
        <ele>1139.3</ele>
        <time>2015-10-10T09:27:46Z</time>
      </trkpt>
      <trkpt lat="42.6789" lon="1.94955">
        <ele>1139.3</ele>
        <time>2015-10-10T09:28:11Z</time>
      </trkpt>
      <trkpt lat="42.67884" lon="1.94944">
        <ele>1139.3</ele>
        <time>2015-10-10T09:28:31Z</time>
      </trkpt>
      <trkpt lat="42.67882" lon="1.94947">
        <ele>1140.74</ele>
        <time>2015-10-10T09:28:52Z</time>
      </trkpt>
      <trkpt lat="42.67873" lon="1.94962">
        <ele>1140.26</ele>
        <time>2015-10-10T09:29:08Z</time>
      </trkpt>
      <trkpt lat="42.67857" lon="1.94965">
        <ele>1140.26</ele>
        <time>2015-10-10T09:29:26Z</time>
      </trkpt>
      <trkpt lat="42.67848" lon="1.94973">
        <ele>1141.22</ele>
        <time>2015-10-10T09:29:40Z</time>
      </trkpt>
      <trkpt lat="42.6784" lon="1.94988">
        <ele>1141.22</ele>
        <time>2015-10-10T09:29:57Z</time>
      </trkpt>
      <trkpt lat="42.67838" lon="1.94994">
        <ele>1140.26</ele>
        <time>2015-10-10T09:30:02Z</time>
      </trkpt>
      <trkpt lat="42.67838" lon="1.94997">
        <ele>1141.7</ele>
        <time>2015-10-10T09:30:05Z</time>
      </trkpt>
      <trkpt lat="42.67827" lon="1.95009">
        <ele>1141.7</ele>
        <time>2015-10-10T09:30:19Z</time>
      </trkpt>
      <trkpt lat="42.67814" lon="1.95014">
        <ele>1141.7</ele>
        <time>2015-10-10T09:30:36Z</time>
      </trkpt>
      <trkpt lat="42.67808" lon="1.95015">
        <ele>1142.66</ele>
        <time>2015-10-10T09:30:47Z</time>
      </trkpt>
      <trkpt lat="42.67798" lon="1.95022">
        <ele>1145.55</ele>
        <time>2015-10-10T09:31:01Z</time>
      </trkpt>
      <trkpt lat="42.67797" lon="1.95031">
        <ele>1145.55</ele>
        <time>2015-10-10T09:31:10Z</time>
      </trkpt>
      <trkpt lat="42.67793" lon="1.95045">
        <ele>1146.03</ele>
        <time>2015-10-10T09:31:18Z</time>
      </trkpt>
      <trkpt lat="42.67781" lon="1.95053">
        <ele>1147.47</ele>
        <time>2015-10-10T09:31:32Z</time>
      </trkpt>
      <trkpt lat="42.67768" lon="1.95078">
        <ele>1147.95</ele>
        <time>2015-10-10T09:31:53Z</time>
      </trkpt>
      <trkpt lat="42.67765" lon="1.95081">
        <ele>1147.95</ele>
        <time>2015-10-10T09:31:56Z</time>
      </trkpt>
      <trkpt lat="42.67749" lon="1.95094">
        <ele>1149.87</ele>
        <time>2015-10-10T09:32:12Z</time>
      </trkpt>
      <trkpt lat="42.6774" lon="1.95107">
        <ele>1150.84</ele>
        <time>2015-10-10T09:32:23Z</time>
      </trkpt>
      <trkpt lat="42.67726" lon="1.95123">
        <ele>1153.24</ele>
        <time>2015-10-10T09:32:41Z</time>
      </trkpt>
      <trkpt lat="42.67714" lon="1.95139">
        <ele>1154.2</ele>
        <time>2015-10-10T09:32:56Z</time>
      </trkpt>
      <trkpt lat="42.67708" lon="1.95143">
        <ele>1154.68</ele>
        <time>2015-10-10T09:33:02Z</time>
      </trkpt>
      <trkpt lat="42.67698" lon="1.95154">
        <ele>1156.12</ele>
        <time>2015-10-10T09:33:12Z</time>
      </trkpt>
      <trkpt lat="42.67689" lon="1.95174">
        <ele>1156.12</ele>
        <time>2015-10-10T09:33:24Z</time>
      </trkpt>
      <trkpt lat="42.67681" lon="1.95186">
        <ele>1157.56</ele>
        <time>2015-10-10T09:33:36Z</time>
      </trkpt>
      <trkpt lat="42.67676" lon="1.95193">
        <ele>1158.05</ele>
        <time>2015-10-10T09:33:47Z</time>
      </trkpt>
      <trkpt lat="42.67667" lon="1.95189">
        <ele>1159.01</ele>
        <time>2015-10-10T09:34:08Z</time>
      </trkpt>
      <trkpt lat="42.67654" lon="1.95196">
        <ele>1159.49</ele>
        <time>2015-10-10T09:34:34Z</time>
      </trkpt>
      <trkpt lat="42.6764" lon="1.95204">
        <ele>1160.45</ele>
        <time>2015-10-10T09:34:53Z</time>
      </trkpt>
      <trkpt lat="42.67637" lon="1.95205">
        <ele>1161.41</ele>
        <time>2015-10-10T09:35:15Z</time>
      </trkpt>
      <trkpt lat="42.67621" lon="1.95209">
        <ele>1160.93</ele>
        <time>2015-10-10T09:35:31Z</time>
      </trkpt>
      <trkpt lat="42.67606" lon="1.9522">
        <ele>1160.45</ele>
        <time>2015-10-10T09:35:45Z</time>
      </trkpt>
      <trkpt lat="42.67597" lon="1.95241">
        <ele>1159.49</ele>
        <time>2015-10-10T09:36:00Z</time>
      </trkpt>
      <trkpt lat="42.67593" lon="1.95261">
        <ele>1159.49</ele>
        <time>2015-10-10T09:36:13Z</time>
      </trkpt>
      <trkpt lat="42.67593" lon="1.95283">
        <ele>1160.45</ele>
        <time>2015-10-10T09:36:28Z</time>
      </trkpt>
      <trkpt lat="42.67589" lon="1.9532">
        <ele>1160.93</ele>
        <time>2015-10-10T09:36:52Z</time>
      </trkpt>
      <trkpt lat="42.67582" lon="1.95334">
        <ele>1161.89</ele>
        <time>2015-10-10T09:37:02Z</time>
      </trkpt>
      <trkpt lat="42.67572" lon="1.95338">
        <ele>1163.33</ele>
        <time>2015-10-10T09:37:11Z</time>
      </trkpt>
      <trkpt lat="42.67565" lon="1.95341">
        <ele>1163.81</ele>
        <time>2015-10-10T09:37:17Z</time>
      </trkpt>
      <trkpt lat="42.6756" lon="1.95343">
        <ele>1163.33</ele>
        <time>2015-10-10T09:37:21Z</time>
      </trkpt>
      <trkpt lat="42.67543" lon="1.9534">
        <ele>1164.77</ele>
        <time>2015-10-10T09:37:37Z</time>
      </trkpt>
      <trkpt lat="42.67531" lon="1.95348">
        <ele>1166.22</ele>
        <time>2015-10-10T09:37:51Z</time>
      </trkpt>
      <trkpt lat="42.67513" lon="1.95361">
        <ele>1169.1</ele>
        <time>2015-10-10T09:38:09Z</time>
      </trkpt>
      <trkpt lat="42.67496" lon="1.95367">
        <ele>1171.02</ele>
        <time>2015-10-10T09:38:28Z</time>
      </trkpt>
      <trkpt lat="42.67483" lon="1.95386">
        <ele>1173.43</ele>
        <time>2015-10-10T09:38:51Z</time>
      </trkpt>
      <trkpt lat="42.67473" lon="1.95397">
        <ele>1173.43</ele>
        <time>2015-10-10T09:39:08Z</time>
      </trkpt>
      <trkpt lat="42.6747" lon="1.954">
        <ele>1174.87</ele>
        <time>2015-10-10T09:39:11Z</time>
      </trkpt>
      <trkpt lat="42.67462" lon="1.9541">
        <ele>1175.83</ele>
        <time>2015-10-10T09:39:23Z</time>
      </trkpt>
      <trkpt lat="42.67459" lon="1.95432">
        <ele>1178.23</ele>
        <time>2015-10-10T09:39:43Z</time>
      </trkpt>
      <trkpt lat="42.67454" lon="1.95444">
        <ele>1178.23</ele>
        <time>2015-10-10T09:39:55Z</time>
      </trkpt>
      <trkpt lat="42.67442" lon="1.95451">
        <ele>1179.67</ele>
        <time>2015-10-10T09:40:08Z</time>
      </trkpt>
      <trkpt lat="42.67431" lon="1.95455">
        <ele>1180.16</ele>
        <time>2015-10-10T09:40:20Z</time>
      </trkpt>
      <trkpt lat="42.67426" lon="1.9546">
        <ele>1179.19</ele>
        <time>2015-10-10T09:40:26Z</time>
      </trkpt>
      <trkpt lat="42.67412" lon="1.95471">
        <ele>1178.71</ele>
        <time>2015-10-10T09:40:41Z</time>
      </trkpt>
      <trkpt lat="42.67401" lon="1.95487">
        <ele>1178.71</ele>
        <time>2015-10-10T09:40:56Z</time>
      </trkpt>
      <trkpt lat="42.67391" lon="1.95503">
        <ele>1180.64</ele>
        <time>2015-10-10T09:41:13Z</time>
      </trkpt>
      <trkpt lat="42.67382" lon="1.95512">
        <ele>1182.56</ele>
        <time>2015-10-10T09:41:26Z</time>
      </trkpt>
      <trkpt lat="42.6737" lon="1.95526">
        <ele>1184.48</ele>
        <time>2015-10-10T09:41:43Z</time>
      </trkpt>
      <trkpt lat="42.67369" lon="1.95527">
        <ele>1185.44</ele>
        <time>2015-10-10T09:41:44Z</time>
      </trkpt>
      <trkpt lat="42.67362" lon="1.95531">
        <ele>1187.37</ele>
        <time>2015-10-10T09:41:56Z</time>
      </trkpt>
      <trkpt lat="42.67345" lon="1.95533">
        <ele>1189.29</ele>
        <time>2015-10-10T09:42:16Z</time>
      </trkpt>
      <trkpt lat="42.67335" lon="1.95558">
        <ele>1189.77</ele>
        <time>2015-10-10T09:42:37Z</time>
      </trkpt>
      <trkpt lat="42.67327" lon="1.95549">
        <ele>1191.69</ele>
        <time>2015-10-10T09:42:54Z</time>
      </trkpt>
      <trkpt lat="42.67338" lon="1.95526">
        <ele>1193.13</ele>
        <time>2015-10-10T09:43:15Z</time>
      </trkpt>
      <trkpt lat="42.67323" lon="1.95515">
        <ele>1195.54</ele>
        <time>2015-10-10T09:43:33Z</time>
      </trkpt>
      <trkpt lat="42.67306" lon="1.95523">
        <ele>1197.46</ele>
        <time>2015-10-10T09:43:49Z</time>
      </trkpt>
      <trkpt lat="42.67305" lon="1.95552">
        <ele>1198.42</ele>
        <time>2015-10-10T09:44:04Z</time>
      </trkpt>
      <trkpt lat="42.67304" lon="1.95568">
        <ele>1199.38</ele>
        <time>2015-10-10T09:44:15Z</time>
      </trkpt>
      <trkpt lat="42.67301" lon="1.95585">
        <ele>1200.82</ele>
        <time>2015-10-10T09:44:31Z</time>
      </trkpt>
      <trkpt lat="42.67296" lon="1.95594">
        <ele>1202.27</ele>
        <time>2015-10-10T09:44:41Z</time>
      </trkpt>
      <trkpt lat="42.67284" lon="1.95607">
        <ele>1202.75</ele>
        <time>2015-10-10T09:44:56Z</time>
      </trkpt>
      <trkpt lat="42.6727" lon="1.95611">
        <ele>1204.67</ele>
        <time>2015-10-10T09:45:10Z</time>
      </trkpt>
      <trkpt lat="42.67257" lon="1.95618">
        <ele>1206.59</ele>
        <time>2015-10-10T09:45:26Z</time>
      </trkpt>
      <trkpt lat="42.67244" lon="1.95621">
        <ele>1207.55</ele>
        <time>2015-10-10T09:45:40Z</time>
      </trkpt>
      <trkpt lat="42.67235" lon="1.95623">
        <ele>1208.51</ele>
        <time>2015-10-10T09:45:52Z</time>
      </trkpt>
      <trkpt lat="42.6723" lon="1.95627">
        <ele>1209.96</ele>
        <time>2015-10-10T09:45:58Z</time>
      </trkpt>
      <trkpt lat="42.67221" lon="1.95643">
        <ele>1208.51</ele>
        <time>2015-10-10T09:46:12Z</time>
      </trkpt>
      <trkpt lat="42.67216" lon="1.95652">
        <ele>1208.51</ele>
        <time>2015-10-10T09:46:18Z</time>
      </trkpt>
      <trkpt lat="42.67208" lon="1.95663">
        <ele>1209</ele>
        <time>2015-10-10T09:46:26Z</time>
      </trkpt>
      <trkpt lat="42.67197" lon="1.95679">
        <ele>1208.51</ele>
        <time>2015-10-10T09:46:40Z</time>
      </trkpt>
      <trkpt lat="42.67187" lon="1.95689">
        <ele>1208.51</ele>
        <time>2015-10-10T09:46:53Z</time>
      </trkpt>
      <trkpt lat="42.67168" lon="1.95709">
        <ele>1209</ele>
        <time>2015-10-10T09:47:13Z</time>
      </trkpt>
      <trkpt lat="42.67149" lon="1.95717">
        <ele>1210.92</ele>
        <time>2015-10-10T09:47:33Z</time>
      </trkpt>
      <trkpt lat="42.67136" lon="1.95723">
        <ele>1211.88</ele>
        <time>2015-10-10T09:47:46Z</time>
      </trkpt>
      <trkpt lat="42.67119" lon="1.9573">
        <ele>1213.32</ele>
        <time>2015-10-10T09:48:02Z</time>
      </trkpt>
      <trkpt lat="42.67114" lon="1.95732">
        <ele>1214.76</ele>
        <time>2015-10-10T09:48:07Z</time>
      </trkpt>
      <trkpt lat="42.67095" lon="1.95738">
        <ele>1215.72</ele>
        <time>2015-10-10T09:48:29Z</time>
      </trkpt>
      <trkpt lat="42.67089" lon="1.95738">
        <ele>1217.65</ele>
        <time>2015-10-10T09:48:37Z</time>
      </trkpt>
      <trkpt lat="42.6708" lon="1.95744">
        <ele>1221.01</ele>
        <time>2015-10-10T09:48:52Z</time>
      </trkpt>
      <trkpt lat="42.67066" lon="1.95744">
        <ele>1221.49</ele>
        <time>2015-10-10T09:49:11Z</time>
      </trkpt>
      <trkpt lat="42.67056" lon="1.95746">
        <ele>1223.9</ele>
        <time>2015-10-10T09:49:25Z</time>
      </trkpt>
      <trkpt lat="42.67048" lon="1.95764">
        <ele>1226.78</ele>
        <time>2015-10-10T09:49:43Z</time>
      </trkpt>
      <trkpt lat="42.67048" lon="1.95775">
        <ele>1227.74</ele>
        <time>2015-10-10T09:49:50Z</time>
      </trkpt>
      <trkpt lat="42.67045" lon="1.95791">
        <ele>1229.18</ele>
        <time>2015-10-10T09:50:04Z</time>
      </trkpt>
      <trkpt lat="42.67046" lon="1.95796">
        <ele>1230.14</ele>
        <time>2015-10-10T09:50:07Z</time>
      </trkpt>
      <trkpt lat="42.67043" lon="1.95815">
        <ele>1231.11</ele>
        <time>2015-10-10T09:50:21Z</time>
      </trkpt>
      <trkpt lat="42.67042" lon="1.95828">
        <ele>1233.51</ele>
        <time>2015-10-10T09:50:31Z</time>
      </trkpt>
      <trkpt lat="42.6704" lon="1.95848">
        <ele>1235.91</ele>
        <time>2015-10-10T09:50:47Z</time>
      </trkpt>
      <trkpt lat="42.6704" lon="1.95861">
        <ele>1238.32</ele>
        <time>2015-10-10T09:51:00Z</time>
      </trkpt>
      <trkpt lat="42.6704" lon="1.95881">
        <ele>1239.28</ele>
        <time>2015-10-10T09:51:15Z</time>
      </trkpt>
      <trkpt lat="42.67043" lon="1.95896">
        <ele>1243.12</ele>
        <time>2015-10-10T09:51:32Z</time>
      </trkpt>
      <trkpt lat="42.67042" lon="1.95903">
        <ele>1242.64</ele>
        <time>2015-10-10T09:51:39Z</time>
      </trkpt>
      <trkpt lat="42.67042" lon="1.95906">
        <ele>1243.12</ele>
        <time>2015-10-10T09:51:42Z</time>
      </trkpt>
      <trkpt lat="42.67038" lon="1.95923">
        <ele>1244.56</ele>
        <time>2015-10-10T09:51:56Z</time>
      </trkpt>
      <trkpt lat="42.67031" lon="1.95952">
        <ele>1247.45</ele>
        <time>2015-10-10T09:52:15Z</time>
      </trkpt>
      <trkpt lat="42.6703" lon="1.95959">
        <ele>1247.93</ele>
        <time>2015-10-10T09:52:20Z</time>
      </trkpt>
      <trkpt lat="42.67024" lon="1.95979">
        <ele>1249.37</ele>
        <time>2015-10-10T09:52:39Z</time>
      </trkpt>
      <trkpt lat="42.67021" lon="1.95986">
        <ele>1249.37</ele>
        <time>2015-10-10T09:52:47Z</time>
      </trkpt>
      <trkpt lat="42.67014" lon="1.95993">
        <ele>1251.29</ele>
        <time>2015-10-10T09:52:55Z</time>
      </trkpt>
      <trkpt lat="42.67012" lon="1.96011">
        <ele>1251.77</ele>
        <time>2015-10-10T09:53:09Z</time>
      </trkpt>
      <trkpt lat="42.67005" lon="1.96025">
        <ele>1254.66</ele>
        <time>2015-10-10T09:53:25Z</time>
      </trkpt>
      <trkpt lat="42.66996" lon="1.96041">
        <ele>1256.58</ele>
        <time>2015-10-10T09:53:42Z</time>
      </trkpt>
      <trkpt lat="42.66982" lon="1.96056">
        <ele>1258.98</ele>
        <time>2015-10-10T09:53:57Z</time>
      </trkpt>
      <trkpt lat="42.66979" lon="1.96058">
        <ele>1258.98</ele>
        <time>2015-10-10T09:54:00Z</time>
      </trkpt>
      <trkpt lat="42.66965" lon="1.96071">
        <ele>1260.43</ele>
        <time>2015-10-10T09:54:17Z</time>
      </trkpt>
      <trkpt lat="42.66959" lon="1.96079">
        <ele>1260.43</ele>
        <time>2015-10-10T09:54:26Z</time>
      </trkpt>
      <trkpt lat="42.66952" lon="1.96094">
        <ele>1261.39</ele>
        <time>2015-10-10T09:54:41Z</time>
      </trkpt>
      <trkpt lat="42.66944" lon="1.96104">
        <ele>1263.31</ele>
        <time>2015-10-10T09:54:54Z</time>
      </trkpt>
      <trkpt lat="42.66935" lon="1.96116">
        <ele>1265.23</ele>
        <time>2015-10-10T09:55:05Z</time>
      </trkpt>
      <trkpt lat="42.66926" lon="1.96127">
        <ele>1266.19</ele>
        <time>2015-10-10T09:55:16Z</time>
      </trkpt>
      <trkpt lat="42.66913" lon="1.96135">
        <ele>1268.6</ele>
        <time>2015-10-10T09:55:31Z</time>
      </trkpt>
      <trkpt lat="42.66902" lon="1.96144">
        <ele>1270.04</ele>
        <time>2015-10-10T09:55:45Z</time>
      </trkpt>
      <trkpt lat="42.66891" lon="1.96163">
        <ele>1272.92</ele>
        <time>2015-10-10T09:56:04Z</time>
      </trkpt>
      <trkpt lat="42.66879" lon="1.9617">
        <ele>1272.92</ele>
        <time>2015-10-10T09:56:17Z</time>
      </trkpt>
      <trkpt lat="42.66876" lon="1.96172">
        <ele>1273.4</ele>
        <time>2015-10-10T09:56:19Z</time>
      </trkpt>
      <trkpt lat="42.66865" lon="1.96184">
        <ele>1273.88</ele>
        <time>2015-10-10T09:56:30Z</time>
      </trkpt>
      <trkpt lat="42.66854" lon="1.96194">
        <ele>1272.92</ele>
        <time>2015-10-10T09:56:46Z</time>
      </trkpt>
      <trkpt lat="42.66845" lon="1.96202">
        <ele>1272.44</ele>
        <time>2015-10-10T09:56:54Z</time>
      </trkpt>
      <trkpt lat="42.66835" lon="1.96209">
        <ele>1272.92</ele>
        <time>2015-10-10T09:57:05Z</time>
      </trkpt>
      <trkpt lat="42.66824" lon="1.96224">
        <ele>1273.88</ele>
        <time>2015-10-10T09:57:20Z</time>
      </trkpt>
      <trkpt lat="42.66812" lon="1.96233">
        <ele>1275.33</ele>
        <time>2015-10-10T09:57:32Z</time>
      </trkpt>
      <trkpt lat="42.66807" lon="1.96254">
        <ele>1276.29</ele>
        <time>2015-10-10T09:57:46Z</time>
      </trkpt>
      <trkpt lat="42.66796" lon="1.96269">
        <ele>1278.21</ele>
        <time>2015-10-10T09:58:02Z</time>
      </trkpt>
      <trkpt lat="42.66784" lon="1.96277">
        <ele>1278.21</ele>
        <time>2015-10-10T09:58:14Z</time>
      </trkpt>
      <trkpt lat="42.66773" lon="1.96283">
        <ele>1280.13</ele>
        <time>2015-10-10T09:58:27Z</time>
      </trkpt>
      <trkpt lat="42.66762" lon="1.96289">
        <ele>1281.09</ele>
        <time>2015-10-10T09:58:40Z</time>
      </trkpt>
      <trkpt lat="42.66747" lon="1.96303">
        <ele>1281.57</ele>
        <time>2015-10-10T09:58:57Z</time>
      </trkpt>
      <trkpt lat="42.66739" lon="1.96322">
        <ele>1282.54</ele>
        <time>2015-10-10T09:59:10Z</time>
      </trkpt>
      <trkpt lat="42.66729" lon="1.96349">
        <ele>1283.98</ele>
        <time>2015-10-10T09:59:27Z</time>
      </trkpt>
      <trkpt lat="42.66726" lon="1.96362">
        <ele>1284.46</ele>
        <time>2015-10-10T09:59:38Z</time>
      </trkpt>
      <trkpt lat="42.66725" lon="1.96363">
        <ele>1283.98</ele>
        <time>2015-10-10T09:59:39Z</time>
      </trkpt>
      <trkpt lat="42.66716" lon="1.96377">
        <ele>1283.98</ele>
        <time>2015-10-10T09:59:50Z</time>
      </trkpt>
      <trkpt lat="42.66708" lon="1.96384">
        <ele>1283.98</ele>
        <time>2015-10-10T09:59:58Z</time>
      </trkpt>
      <trkpt lat="42.66706" lon="1.96389">
        <ele>1283.5</ele>
        <time>2015-10-10T10:00:02Z</time>
      </trkpt>
      <trkpt lat="42.66701" lon="1.96395">
        <ele>1282.54</ele>
        <time>2015-10-10T10:00:08Z</time>
      </trkpt>
      <trkpt lat="42.66698" lon="1.964">
        <ele>1283.98</ele>
        <time>2015-10-10T10:00:12Z</time>
      </trkpt>
      <trkpt lat="42.66692" lon="1.96418">
        <ele>1283.5</ele>
        <time>2015-10-10T10:00:24Z</time>
      </trkpt>
      <trkpt lat="42.66687" lon="1.96437">
        <ele>1284.94</ele>
        <time>2015-10-10T10:00:37Z</time>
      </trkpt>
      <trkpt lat="42.66679" lon="1.96451">
        <ele>1285.9</ele>
        <time>2015-10-10T10:00:49Z</time>
      </trkpt>
      <trkpt lat="42.66678" lon="1.96452">
        <ele>1286.86</ele>
        <time>2015-10-10T10:00:51Z</time>
      </trkpt>
      <trkpt lat="42.66673" lon="1.96462">
        <ele>1285.9</ele>
        <time>2015-10-10T10:00:59Z</time>
      </trkpt>
      <trkpt lat="42.6667" lon="1.96468">
        <ele>1286.86</ele>
        <time>2015-10-10T10:01:04Z</time>
      </trkpt>
      <trkpt lat="42.66661" lon="1.96479">
        <ele>1287.34</ele>
        <time>2015-10-10T10:01:17Z</time>
      </trkpt>
      <trkpt lat="42.6666" lon="1.9648">
        <ele>1287.82</ele>
        <time>2015-10-10T10:01:19Z</time>
      </trkpt>
      <trkpt lat="42.66657" lon="1.96486">
        <ele>1287.82</ele>
        <time>2015-10-10T10:01:23Z</time>
      </trkpt>
      <trkpt lat="42.66654" lon="1.9649">
        <ele>1287.82</ele>
        <time>2015-10-10T10:01:27Z</time>
      </trkpt>
      <trkpt lat="42.66652" lon="1.96492">
        <ele>1288.3</ele>
        <time>2015-10-10T10:01:29Z</time>
      </trkpt>
      <trkpt lat="42.66646" lon="1.96496">
        <ele>1288.3</ele>
        <time>2015-10-10T10:01:34Z</time>
      </trkpt>
      <trkpt lat="42.66639" lon="1.96502">
        <ele>1287.82</ele>
        <time>2015-10-10T10:01:40Z</time>
      </trkpt>
      <trkpt lat="42.66637" lon="1.96512">
        <ele>1288.78</ele>
        <time>2015-10-10T10:01:48Z</time>
      </trkpt>
      <trkpt lat="42.66629" lon="1.96525">
        <ele>1291.67</ele>
        <time>2015-10-10T10:02:01Z</time>
      </trkpt>
      <trkpt lat="42.66633" lon="1.96541">
        <ele>1291.19</ele>
        <time>2015-10-10T10:02:16Z</time>
      </trkpt>
      <trkpt lat="42.66638" lon="1.96554">
        <ele>1292.15</ele>
        <time>2015-10-10T10:02:29Z</time>
      </trkpt>
      <trkpt lat="42.66646" lon="1.9657">
        <ele>1293.59</ele>
        <time>2015-10-10T10:02:45Z</time>
      </trkpt>
      <trkpt lat="42.66649" lon="1.96583">
        <ele>1295.51</ele>
        <time>2015-10-10T10:02:57Z</time>
      </trkpt>
      <trkpt lat="42.66646" lon="1.96597">
        <ele>1297.44</ele>
        <time>2015-10-10T10:03:13Z</time>
      </trkpt>
      <trkpt lat="42.66646" lon="1.96603">
        <ele>1299.36</ele>
        <time>2015-10-10T10:03:19Z</time>
      </trkpt>
      <trkpt lat="42.66639" lon="1.96622">
        <ele>1300.8</ele>
        <time>2015-10-10T10:03:34Z</time>
      </trkpt>
      <trkpt lat="42.66626" lon="1.96632">
        <ele>1301.76</ele>
        <time>2015-10-10T10:03:49Z</time>
      </trkpt>
      <trkpt lat="42.66612" lon="1.96635">
        <ele>1302.72</ele>
        <time>2015-10-10T10:04:03Z</time>
      </trkpt>
      <trkpt lat="42.66602" lon="1.96638">
        <ele>1303.69</ele>
        <time>2015-10-10T10:04:17Z</time>
      </trkpt>
      <trkpt lat="42.66597" lon="1.96638">
        <ele>1303.2</ele>
        <time>2015-10-10T10:04:30Z</time>
      </trkpt>
      <trkpt lat="42.66593" lon="1.96638">
        <ele>1302.72</ele>
        <time>2015-10-10T10:04:35Z</time>
      </trkpt>
      <trkpt lat="42.66588" lon="1.96642">
        <ele>1303.2</ele>
        <time>2015-10-10T10:04:41Z</time>
      </trkpt>
      <trkpt lat="42.66586" lon="1.96643">
        <ele>1302.24</ele>
        <time>2015-10-10T10:04:44Z</time>
      </trkpt>
      <trkpt lat="42.66577" lon="1.96643">
        <ele>1302.24</ele>
        <time>2015-10-10T10:04:51Z</time>
      </trkpt>
      <trkpt lat="42.66569" lon="1.96642">
        <ele>1301.76</ele>
        <time>2015-10-10T10:04:57Z</time>
      </trkpt>
      <trkpt lat="42.66562" lon="1.96641">
        <ele>1300.8</ele>
        <time>2015-10-10T10:05:03Z</time>
      </trkpt>
      <trkpt lat="42.66558" lon="1.9664">
        <ele>1300.8</ele>
        <time>2015-10-10T10:05:07Z</time>
      </trkpt>
      <trkpt lat="42.66554" lon="1.96637">
        <ele>1300.8</ele>
        <time>2015-10-10T10:05:11Z</time>
      </trkpt>
      <trkpt lat="42.66549" lon="1.96634">
        <ele>1300.32</ele>
        <time>2015-10-10T10:05:16Z</time>
      </trkpt>
      <trkpt lat="42.66535" lon="1.96638">
        <ele>1300.8</ele>
        <time>2015-10-10T10:05:31Z</time>
      </trkpt>
      <trkpt lat="42.66532" lon="1.96639">
        <ele>1300.8</ele>
        <time>2015-10-10T10:05:34Z</time>
      </trkpt>
      <trkpt lat="42.66516" lon="1.96638">
        <ele>1299.84</ele>
        <time>2015-10-10T10:05:48Z</time>
      </trkpt>
      <trkpt lat="42.66499" lon="1.96634">
        <ele>1300.32</ele>
        <time>2015-10-10T10:06:01Z</time>
      </trkpt>
      <trkpt lat="42.66487" lon="1.96632">
        <ele>1300.8</ele>
        <time>2015-10-10T10:06:14Z</time>
      </trkpt>
      <trkpt lat="42.66476" lon="1.96632">
        <ele>1301.28</ele>
        <time>2015-10-10T10:06:27Z</time>
      </trkpt>
      <trkpt lat="42.66474" lon="1.96631">
        <ele>1300.32</ele>
        <time>2015-10-10T10:06:29Z</time>
      </trkpt>
      <trkpt lat="42.66454" lon="1.96636">
        <ele>1300.8</ele>
        <time>2015-10-10T10:06:44Z</time>
      </trkpt>
      <trkpt lat="42.6645" lon="1.96637">
        <ele>1301.28</ele>
        <time>2015-10-10T10:06:48Z</time>
      </trkpt>
      <trkpt lat="42.66434" lon="1.96637">
        <ele>1301.28</ele>
        <time>2015-10-10T10:07:02Z</time>
      </trkpt>
      <trkpt lat="42.66412" lon="1.96644">
        <ele>1302.72</ele>
        <time>2015-10-10T10:07:19Z</time>
      </trkpt>
      <trkpt lat="42.66411" lon="1.96645">
        <ele>1302.72</ele>
        <time>2015-10-10T10:07:20Z</time>
      </trkpt>
      <trkpt lat="42.66403" lon="1.96649">
        <ele>1304.17</ele>
        <time>2015-10-10T10:07:28Z</time>
      </trkpt>
      <trkpt lat="42.66388" lon="1.96659">
        <ele>1304.65</ele>
        <time>2015-10-10T10:07:42Z</time>
      </trkpt>
      <trkpt lat="42.66374" lon="1.9666">
        <ele>1306.09</ele>
        <time>2015-10-10T10:07:54Z</time>
      </trkpt>
      <trkpt lat="42.6637" lon="1.96662">
        <ele>1306.09</ele>
        <time>2015-10-10T10:07:58Z</time>
      </trkpt>
      <trkpt lat="42.66366" lon="1.96663">
        <ele>1307.53</ele>
        <time>2015-10-10T10:08:02Z</time>
      </trkpt>
      <trkpt lat="42.66353" lon="1.96672">
        <ele>1308.97</ele>
        <time>2015-10-10T10:08:16Z</time>
      </trkpt>
      <trkpt lat="42.66344" lon="1.96677">
        <ele>1308.49</ele>
        <time>2015-10-10T10:08:23Z</time>
      </trkpt>
      <trkpt lat="42.66334" lon="1.96679">
        <ele>1309.93</ele>
        <time>2015-10-10T10:08:33Z</time>
      </trkpt>
      <trkpt lat="42.66332" lon="1.9668">
        <ele>1310.41</ele>
        <time>2015-10-10T10:08:35Z</time>
      </trkpt>
      <trkpt lat="42.66323" lon="1.96677">
        <ele>1312.34</ele>
        <time>2015-10-10T10:08:52Z</time>
      </trkpt>
      <trkpt lat="42.66338" lon="1.96667">
        <ele>1314.74</ele>
        <time>2015-10-10T10:09:09Z</time>
      </trkpt>
      <trkpt lat="42.66353" lon="1.96663">
        <ele>1314.74</ele>
        <time>2015-10-10T10:09:25Z</time>
      </trkpt>
      <trkpt lat="42.66365" lon="1.96647">
        <ele>1318.1</ele>
        <time>2015-10-10T10:09:40Z</time>
      </trkpt>
      <trkpt lat="42.6636" lon="1.9663">
        <ele>1320.51</ele>
        <time>2015-10-10T10:09:56Z</time>
      </trkpt>
      <trkpt lat="42.66345" lon="1.96628">
        <ele>1321.47</ele>
        <time>2015-10-10T10:10:12Z</time>
      </trkpt>
      <trkpt lat="42.6633" lon="1.9663">
        <ele>1324.83</ele>
        <time>2015-10-10T10:10:27Z</time>
      </trkpt>
      <trkpt lat="42.66324" lon="1.96626">
        <ele>1324.35</ele>
        <time>2015-10-10T10:10:34Z</time>
      </trkpt>
      <trkpt lat="42.66312" lon="1.9663">
        <ele>1326.76</ele>
        <time>2015-10-10T10:10:47Z</time>
      </trkpt>
      <trkpt lat="42.66311" lon="1.9663">
        <ele>1325.8</ele>
        <time>2015-10-10T10:10:48Z</time>
      </trkpt>
      <trkpt lat="42.66297" lon="1.96633">
        <ele>1328.2</ele>
        <time>2015-10-10T10:11:02Z</time>
      </trkpt>
      <trkpt lat="42.66291" lon="1.96629">
        <ele>1330.6</ele>
        <time>2015-10-10T10:11:18Z</time>
      </trkpt>
      <trkpt lat="42.66283" lon="1.9663">
        <ele>1332.52</ele>
        <time>2015-10-10T10:11:31Z</time>
      </trkpt>
      <trkpt lat="42.66272" lon="1.96618">
        <ele>1334.93</ele>
        <time>2015-10-10T10:11:46Z</time>
      </trkpt>
      <trkpt lat="42.6626" lon="1.96606">
        <ele>1336.37</ele>
        <time>2015-10-10T10:12:03Z</time>
      </trkpt>
      <trkpt lat="42.66237" lon="1.96604">
        <ele>1338.29</ele>
        <time>2015-10-10T10:12:19Z</time>
      </trkpt>
      <trkpt lat="42.66226" lon="1.96609">
        <ele>1339.73</ele>
        <time>2015-10-10T10:12:30Z</time>
      </trkpt>
      <trkpt lat="42.66214" lon="1.96605">
        <ele>1342.14</ele>
        <time>2015-10-10T10:12:43Z</time>
      </trkpt>
      <trkpt lat="42.66211" lon="1.96606">
        <ele>1340.7</ele>
        <time>2015-10-10T10:12:46Z</time>
      </trkpt>
      <trkpt lat="42.6619" lon="1.96612">
        <ele>1344.06</ele>
        <time>2015-10-10T10:13:06Z</time>
      </trkpt>
      <trkpt lat="42.66174" lon="1.96615">
        <ele>1345.02</ele>
        <time>2015-10-10T10:13:23Z</time>
      </trkpt>
      <trkpt lat="42.66173" lon="1.96615">
        <ele>1345.98</ele>
        <time>2015-10-10T10:13:25Z</time>
      </trkpt>
      <trkpt lat="42.66171" lon="1.96617">
        <ele>1345.02</ele>
        <time>2015-10-10T10:13:28Z</time>
      </trkpt>
      <trkpt lat="42.66166" lon="1.96619">
        <ele>1346.46</ele>
        <time>2015-10-10T10:13:33Z</time>
      </trkpt>
      <trkpt lat="42.66161" lon="1.96619">
        <ele>1345.98</ele>
        <time>2015-10-10T10:13:38Z</time>
      </trkpt>
      <trkpt lat="42.6615" lon="1.96624">
        <ele>1346.94</ele>
        <time>2015-10-10T10:13:51Z</time>
      </trkpt>
      <trkpt lat="42.66138" lon="1.96626">
        <ele>1348.39</ele>
        <time>2015-10-10T10:14:02Z</time>
      </trkpt>
      <trkpt lat="42.66131" lon="1.96626">
        <ele>1349.35</ele>
        <time>2015-10-10T10:14:08Z</time>
      </trkpt>
      <trkpt lat="42.66127" lon="1.96624">
        <ele>1350.31</ele>
        <time>2015-10-10T10:14:13Z</time>
      </trkpt>
      <trkpt lat="42.66124" lon="1.96621">
        <ele>1350.79</ele>
        <time>2015-10-10T10:14:17Z</time>
      </trkpt>
      <trkpt lat="42.66114" lon="1.96617">
        <ele>1352.71</ele>
        <time>2015-10-10T10:14:28Z</time>
      </trkpt>
      <trkpt lat="42.66101" lon="1.96608">
        <ele>1352.23</ele>
        <time>2015-10-10T10:14:41Z</time>
      </trkpt>
      <trkpt lat="42.66085" lon="1.96603">
        <ele>1353.19</ele>
        <time>2015-10-10T10:14:55Z</time>
      </trkpt>
      <trkpt lat="42.66074" lon="1.96598">
        <ele>1353.19</ele>
        <time>2015-10-10T10:15:07Z</time>
      </trkpt>
      <trkpt lat="42.66068" lon="1.96595">
        <ele>1354.15</ele>
        <time>2015-10-10T10:15:17Z</time>
      </trkpt>
      <trkpt lat="42.6606" lon="1.9659">
        <ele>1354.15</ele>
        <time>2015-10-10T10:15:28Z</time>
      </trkpt>
      <trkpt lat="42.66044" lon="1.96578">
        <ele>1355.12</ele>
        <time>2015-10-10T10:15:42Z</time>
      </trkpt>
      <trkpt lat="42.66043" lon="1.96577">
        <ele>1356.56</ele>
        <time>2015-10-10T10:15:43Z</time>
      </trkpt>
      <trkpt lat="42.6604" lon="1.96577">
        <ele>1356.56</ele>
        <time>2015-10-10T10:15:46Z</time>
      </trkpt>
      <trkpt lat="42.66026" lon="1.96571">
        <ele>1357.52</ele>
        <time>2015-10-10T10:16:00Z</time>
      </trkpt>
      <trkpt lat="42.6602" lon="1.96569">
        <ele>1358.48</ele>
        <time>2015-10-10T10:16:05Z</time>
      </trkpt>
      <trkpt lat="42.66011" lon="1.96565">
        <ele>1359.44</ele>
        <time>2015-10-10T10:16:17Z</time>
      </trkpt>
      <trkpt lat="42.65996" lon="1.96561">
        <ele>1361.36</ele>
        <time>2015-10-10T10:16:33Z</time>
      </trkpt>
      <trkpt lat="42.65989" lon="1.96563">
        <ele>1361.36</ele>
        <time>2015-10-10T10:16:50Z</time>
      </trkpt>
      <trkpt lat="42.65976" lon="1.96557">
        <ele>1363.77</ele>
        <time>2015-10-10T10:17:06Z</time>
      </trkpt>
      <trkpt lat="42.65967" lon="1.96557">
        <ele>1365.21</ele>
        <time>2015-10-10T10:17:16Z</time>
      </trkpt>
      <trkpt lat="42.65956" lon="1.96548">
        <ele>1367.13</ele>
        <time>2015-10-10T10:17:28Z</time>
      </trkpt>
      <trkpt lat="42.6595" lon="1.96538">
        <ele>1367.61</ele>
        <time>2015-10-10T10:17:40Z</time>
      </trkpt>
      <trkpt lat="42.65951" lon="1.96534">
        <ele>1368.09</ele>
        <time>2015-10-10T10:17:46Z</time>
      </trkpt>
      <trkpt lat="42.65954" lon="1.96527">
        <ele>1369.05</ele>
        <time>2015-10-10T10:17:56Z</time>
      </trkpt>
      <trkpt lat="42.65969" lon="1.96527">
        <ele>1370.02</ele>
        <time>2015-10-10T10:18:11Z</time>
      </trkpt>
      <trkpt lat="42.65979" lon="1.96533">
        <ele>1371.94</ele>
        <time>2015-10-10T10:18:25Z</time>
      </trkpt>
      <trkpt lat="42.6598" lon="1.96533">
        <ele>1371.46</ele>
        <time>2015-10-10T10:18:29Z</time>
      </trkpt>
      <trkpt lat="42.65998" lon="1.96535">
        <ele>1372.42</ele>
        <time>2015-10-10T10:18:46Z</time>
      </trkpt>
      <trkpt lat="42.66002" lon="1.96532">
        <ele>1373.38</ele>
        <time>2015-10-10T10:18:51Z</time>
      </trkpt>
      <trkpt lat="42.66002" lon="1.9653">
        <ele>1372.9</ele>
        <time>2015-10-10T10:18:53Z</time>
      </trkpt>
      <trkpt lat="42.66003" lon="1.96521">
        <ele>1374.34</ele>
        <time>2015-10-10T10:18:59Z</time>
      </trkpt>
      <trkpt lat="42.66" lon="1.96514">
        <ele>1375.3</ele>
        <time>2015-10-10T10:19:05Z</time>
      </trkpt>
      <trkpt lat="42.65988" lon="1.96505">
        <ele>1377.23</ele>
        <time>2015-10-10T10:19:18Z</time>
      </trkpt>
      <trkpt lat="42.65984" lon="1.96506">
        <ele>1376.75</ele>
        <time>2015-10-10T10:19:23Z</time>
      </trkpt>
      <trkpt lat="42.6597" lon="1.96497">
        <ele>1379.63</ele>
        <time>2015-10-10T10:19:41Z</time>
      </trkpt>
      <trkpt lat="42.65969" lon="1.96494">
        <ele>1380.59</ele>
        <time>2015-10-10T10:19:45Z</time>
      </trkpt>
      <trkpt lat="42.65957" lon="1.96482">
        <ele>1381.55</ele>
        <time>2015-10-10T10:20:02Z</time>
      </trkpt>
      <trkpt lat="42.65943" lon="1.96459">
        <ele>1383.47</ele>
        <time>2015-10-10T10:20:20Z</time>
      </trkpt>
      <trkpt lat="42.65932" lon="1.96447">
        <ele>1384.44</ele>
        <time>2015-10-10T10:20:35Z</time>
      </trkpt>
      <trkpt lat="42.65928" lon="1.96442">
        <ele>1385.4</ele>
        <time>2015-10-10T10:20:41Z</time>
      </trkpt>
      <trkpt lat="42.65915" lon="1.96439">
        <ele>1387.32</ele>
        <time>2015-10-10T10:20:52Z</time>
      </trkpt>
      <trkpt lat="42.65898" lon="1.96443">
        <ele>1388.28</ele>
        <time>2015-10-10T10:21:05Z</time>
      </trkpt>
      <trkpt lat="42.65896" lon="1.96444">
        <ele>1387.32</ele>
        <time>2015-10-10T10:21:07Z</time>
      </trkpt>
      <trkpt lat="42.65894" lon="1.96446">
        <ele>1388.28</ele>
        <time>2015-10-10T10:21:09Z</time>
      </trkpt>
      <trkpt lat="42.65886" lon="1.9645">
        <ele>1387.8</ele>
        <time>2015-10-10T10:21:16Z</time>
      </trkpt>
      <trkpt lat="42.65878" lon="1.96456">
        <ele>1388.76</ele>
        <time>2015-10-10T10:21:24Z</time>
      </trkpt>
      <trkpt lat="42.65866" lon="1.96465">
        <ele>1390.68</ele>
        <time>2015-10-10T10:21:39Z</time>
      </trkpt>
      <trkpt lat="42.65862" lon="1.96468">
        <ele>1391.17</ele>
        <time>2015-10-10T10:21:44Z</time>
      </trkpt>
      <trkpt lat="42.65856" lon="1.96475">
        <ele>1392.13</ele>
        <time>2015-10-10T10:21:52Z</time>
      </trkpt>
      <trkpt lat="42.65846" lon="1.96479">
        <ele>1393.57</ele>
        <time>2015-10-10T10:22:07Z</time>
      </trkpt>
      <trkpt lat="42.65828" lon="1.96485">
        <ele>1395.49</ele>
        <time>2015-10-10T10:22:25Z</time>
      </trkpt>
      <trkpt lat="42.65812" lon="1.96492">
        <ele>1395.49</ele>
        <time>2015-10-10T10:22:38Z</time>
      </trkpt>
      <trkpt lat="42.65801" lon="1.96498">
        <ele>1398.37</ele>
        <time>2015-10-10T10:22:50Z</time>
      </trkpt>
      <trkpt lat="42.65799" lon="1.96498">
        <ele>1397.41</ele>
        <time>2015-10-10T10:22:52Z</time>
      </trkpt>
      <trkpt lat="42.65789" lon="1.965">
        <ele>1398.37</ele>
        <time>2015-10-10T10:23:04Z</time>
      </trkpt>
      <trkpt lat="42.65777" lon="1.965">
        <ele>1398.86</ele>
        <time>2015-10-10T10:23:14Z</time>
      </trkpt>
      <trkpt lat="42.65771" lon="1.96498">
        <ele>1399.34</ele>
        <time>2015-10-10T10:23:20Z</time>
      </trkpt>
      <trkpt lat="42.65764" lon="1.96495">
        <ele>1399.34</ele>
        <time>2015-10-10T10:23:27Z</time>
      </trkpt>
      <trkpt lat="42.65759" lon="1.96495">
        <ele>1399.34</ele>
        <time>2015-10-10T10:23:32Z</time>
      </trkpt>
      <trkpt lat="42.65747" lon="1.96496">
        <ele>1399.34</ele>
        <time>2015-10-10T10:23:41Z</time>
      </trkpt>
      <trkpt lat="42.65736" lon="1.96505">
        <ele>1399.82</ele>
        <time>2015-10-10T10:23:50Z</time>
      </trkpt>
      <trkpt lat="42.65715" lon="1.96506">
        <ele>1401.26</ele>
        <time>2015-10-10T10:24:08Z</time>
      </trkpt>
      <trkpt lat="42.65701" lon="1.96504">
        <ele>1401.74</ele>
        <time>2015-10-10T10:24:20Z</time>
      </trkpt>
      <trkpt lat="42.65697" lon="1.96503">
        <ele>1401.26</ele>
        <time>2015-10-10T10:24:23Z</time>
      </trkpt>
      <trkpt lat="42.65685" lon="1.965">
        <ele>1401.74</ele>
        <time>2015-10-10T10:24:35Z</time>
      </trkpt>
      <trkpt lat="42.6567" lon="1.96492">
        <ele>1402.22</ele>
        <time>2015-10-10T10:24:48Z</time>
      </trkpt>
      <trkpt lat="42.65664" lon="1.9649">
        <ele>1402.22</ele>
        <time>2015-10-10T10:24:53Z</time>
      </trkpt>
      <trkpt lat="42.65653" lon="1.96485">
        <ele>1402.22</ele>
        <time>2015-10-10T10:25:03Z</time>
      </trkpt>
      <trkpt lat="42.65636" lon="1.9647">
        <ele>1403.66</ele>
        <time>2015-10-10T10:25:23Z</time>
      </trkpt>
      <trkpt lat="42.65619" lon="1.96462">
        <ele>1403.18</ele>
        <time>2015-10-10T10:25:41Z</time>
      </trkpt>
      <trkpt lat="42.65606" lon="1.96454">
        <ele>1401.26</ele>
        <time>2015-10-10T10:25:55Z</time>
      </trkpt>
      <trkpt lat="42.65599" lon="1.96449">
        <ele>1402.22</ele>
        <time>2015-10-10T10:26:09Z</time>
      </trkpt>
      <trkpt lat="42.65589" lon="1.96442">
        <ele>1402.22</ele>
        <time>2015-10-10T10:26:23Z</time>
      </trkpt>
      <trkpt lat="42.65588" lon="1.96436">
        <ele>1402.7</ele>
        <time>2015-10-10T10:26:39Z</time>
      </trkpt>
      <trkpt lat="42.65588" lon="1.96435">
        <ele>1402.22</ele>
        <time>2015-10-10T10:26:56Z</time>
      </trkpt>
      <trkpt lat="42.6559" lon="1.96435">
        <ele>1403.18</ele>
        <time>2015-10-10T10:27:15Z</time>
      </trkpt>
      <trkpt lat="42.65596" lon="1.96437">
        <ele>1402.7</ele>
        <time>2015-10-10T10:27:51Z</time>
      </trkpt>
      <trkpt lat="42.65593" lon="1.96433">
        <ele>1402.22</ele>
        <time>2015-10-10T10:28:09Z</time>
      </trkpt>
      <trkpt lat="42.65591" lon="1.96435">
        <ele>1401.26</ele>
        <time>2015-10-10T10:28:31Z</time>
      </trkpt>
      <trkpt lat="42.65593" lon="1.96435">
        <ele>1402.7</ele>
        <time>2015-10-10T10:29:37Z</time>
      </trkpt>
      <trkpt lat="42.65592" lon="1.96433">
        <ele>1402.7</ele>
        <time>2015-10-10T10:29:58Z</time>
      </trkpt>
      <trkpt lat="42.65593" lon="1.96438">
        <ele>1402.22</ele>
        <time>2015-10-10T10:30:10Z</time>
      </trkpt>
      <trkpt lat="42.65589" lon="1.96446">
        <ele>1402.7</ele>
        <time>2015-10-10T10:30:44Z</time>
      </trkpt>
      <trkpt lat="42.65593" lon="1.96438">
        <ele>1401.26</ele>
        <time>2015-10-10T10:31:03Z</time>
      </trkpt>
      <trkpt lat="42.65593" lon="1.96431">
        <ele>1401.74</ele>
        <time>2015-10-10T10:31:22Z</time>
      </trkpt>
      <trkpt lat="42.65594" lon="1.96428">
        <ele>1401.74</ele>
        <time>2015-10-10T10:31:46Z</time>
      </trkpt>
      <trkpt lat="42.65593" lon="1.96431">
        <ele>1400.3</ele>
        <time>2015-10-10T10:32:33Z</time>
      </trkpt>
      <trkpt lat="42.65594" lon="1.96434">
        <ele>1401.74</ele>
        <time>2015-10-10T10:32:55Z</time>
      </trkpt>
      <trkpt lat="42.65593" lon="1.96432">
        <ele>1402.22</ele>
        <time>2015-10-10T10:33:13Z</time>
      </trkpt>
      <trkpt lat="42.65595" lon="1.96431">
        <ele>1401.26</ele>
        <time>2015-10-10T10:33:37Z</time>
      </trkpt>
      <trkpt lat="42.65592" lon="1.96434">
        <ele>1402.7</ele>
        <time>2015-10-10T10:33:57Z</time>
      </trkpt>
      <trkpt lat="42.65592" lon="1.96434">
        <ele>1401.26</ele>
        <time>2015-10-10T10:34:42Z</time>
      </trkpt>
      <trkpt lat="42.65592" lon="1.96434">
        <ele>1401.74</ele>
        <time>2015-10-10T10:35:11Z</time>
      </trkpt>
      <trkpt lat="42.65594" lon="1.96434">
        <ele>1401.74</ele>
        <time>2015-10-10T10:35:44Z</time>
      </trkpt>
      <trkpt lat="42.65591" lon="1.96431">
        <ele>1402.22</ele>
        <time>2015-10-10T10:36:12Z</time>
      </trkpt>
      <trkpt lat="42.65592" lon="1.96433">
        <ele>1400.78</ele>
        <time>2015-10-10T10:36:40Z</time>
      </trkpt>
      <trkpt lat="42.65592" lon="1.96433">
        <ele>1400.3</ele>
        <time>2015-10-10T10:36:57Z</time>
      </trkpt>
      <trkpt lat="42.65594" lon="1.96436">
        <ele>1400.78</ele>
        <time>2015-10-10T10:37:28Z</time>
      </trkpt>
      <trkpt lat="42.65594" lon="1.9643">
        <ele>1400.78</ele>
        <time>2015-10-10T10:37:38Z</time>
      </trkpt>
      <trkpt lat="42.6559" lon="1.96435">
        <ele>1401.74</ele>
        <time>2015-10-10T10:37:57Z</time>
      </trkpt>
      <trkpt lat="42.65591" lon="1.96435">
        <ele>1400.78</ele>
        <time>2015-10-10T10:38:45Z</time>
      </trkpt>
      <trkpt lat="42.65592" lon="1.96435">
        <ele>1399.82</ele>
        <time>2015-10-10T10:39:11Z</time>
      </trkpt>
      <trkpt lat="42.65592" lon="1.96433">
        <ele>1400.78</ele>
        <time>2015-10-10T10:39:31Z</time>
      </trkpt>
      <trkpt lat="42.6559" lon="1.96431">
        <ele>1400.3</ele>
        <time>2015-10-10T10:40:07Z</time>
      </trkpt>
      <trkpt lat="42.6559" lon="1.9643">
        <ele>1399.82</ele>
        <time>2015-10-10T10:40:44Z</time>
      </trkpt>
      <trkpt lat="42.65592" lon="1.96435">
        <ele>1399.82</ele>
        <time>2015-10-10T10:41:04Z</time>
      </trkpt>
      <trkpt lat="42.65594" lon="1.96434">
        <ele>1399.82</ele>
        <time>2015-10-10T10:41:36Z</time>
      </trkpt>
      <trkpt lat="42.65596" lon="1.96434">
        <ele>1400.3</ele>
        <time>2015-10-10T10:41:49Z</time>
      </trkpt>
      <trkpt lat="42.65595" lon="1.96434">
        <ele>1399.82</ele>
        <time>2015-10-10T10:41:56Z</time>
      </trkpt>
      <trkpt lat="42.65595" lon="1.96434">
        <ele>1399.34</ele>
        <time>2015-10-10T10:42:47Z</time>
      </trkpt>
      <trkpt lat="42.65594" lon="1.96433">
        <ele>1400.78</ele>
        <time>2015-10-10T10:42:51Z</time>
      </trkpt>
      <trkpt lat="42.65595" lon="1.96434">
        <ele>1399.82</ele>
        <time>2015-10-10T10:43:03Z</time>
      </trkpt>
      <trkpt lat="42.65595" lon="1.96436">
        <ele>1400.3</ele>
        <time>2015-10-10T10:43:08Z</time>
      </trkpt>
      <trkpt lat="42.65595" lon="1.96436">
        <ele>1400.78</ele>
        <time>2015-10-10T10:43:19Z</time>
      </trkpt>
      <trkpt lat="42.65594" lon="1.96436">
        <ele>1400.3</ele>
        <time>2015-10-10T10:43:36Z</time>
      </trkpt>
      <trkpt lat="42.65594" lon="1.96435">
        <ele>1399.82</ele>
        <time>2015-10-10T10:43:54Z</time>
      </trkpt>
      <trkpt lat="42.65593" lon="1.96431">
        <ele>1400.3</ele>
        <time>2015-10-10T10:44:31Z</time>
      </trkpt>
      <trkpt lat="42.65592" lon="1.9643">
        <ele>1401.26</ele>
        <time>2015-10-10T10:44:45Z</time>
      </trkpt>
      <trkpt lat="42.65592" lon="1.9643">
        <ele>1399.34</ele>
        <time>2015-10-10T10:45:07Z</time>
      </trkpt>
      <trkpt lat="42.65591" lon="1.96432">
        <ele>1400.3</ele>
        <time>2015-10-10T10:45:39Z</time>
      </trkpt>
      <trkpt lat="42.65591" lon="1.96434">
        <ele>1400.3</ele>
        <time>2015-10-10T10:46:09Z</time>
      </trkpt>
      <trkpt lat="42.65592" lon="1.96432">
        <ele>1399.82</ele>
        <time>2015-10-10T10:46:36Z</time>
      </trkpt>
      <trkpt lat="42.65591" lon="1.96432">
        <ele>1398.86</ele>
        <time>2015-10-10T10:47:19Z</time>
      </trkpt>
      <trkpt lat="42.65596" lon="1.96434">
        <ele>1400.3</ele>
        <time>2015-10-10T10:47:40Z</time>
      </trkpt>
      <trkpt lat="42.65596" lon="1.96434">
        <ele>1400.78</ele>
        <time>2015-10-10T10:47:51Z</time>
      </trkpt>
      <trkpt lat="42.65595" lon="1.96433">
        <ele>1400.3</ele>
        <time>2015-10-10T10:48:09Z</time>
      </trkpt>
      <trkpt lat="42.65595" lon="1.96431">
        <ele>1399.34</ele>
        <time>2015-10-10T10:48:59Z</time>
      </trkpt>
      <trkpt lat="42.65593" lon="1.9643">
        <ele>1399.82</ele>
        <time>2015-10-10T10:49:10Z</time>
      </trkpt>
      <trkpt lat="42.65594" lon="1.96432">
        <ele>1400.3</ele>
        <time>2015-10-10T10:49:26Z</time>
      </trkpt>
      <trkpt lat="42.65593" lon="1.96429">
        <ele>1400.78</ele>
        <time>2015-10-10T10:50:12Z</time>
      </trkpt>
      <trkpt lat="42.65592" lon="1.9643">
        <ele>1400.3</ele>
        <time>2015-10-10T10:50:38Z</time>
      </trkpt>
      <trkpt lat="42.65591" lon="1.9643">
        <ele>1400.78</ele>
        <time>2015-10-10T10:51:05Z</time>
      </trkpt>
      <trkpt lat="42.65592" lon="1.96432">
        <ele>1399.82</ele>
        <time>2015-10-10T10:51:40Z</time>
      </trkpt>
      <trkpt lat="42.65591" lon="1.9643">
        <ele>1400.78</ele>
        <time>2015-10-10T10:52:00Z</time>
      </trkpt>
      <trkpt lat="42.65591" lon="1.96433">
        <ele>1399.82</ele>
        <time>2015-10-10T10:52:24Z</time>
      </trkpt>
      <trkpt lat="42.6559" lon="1.96434">
        <ele>1399.34</ele>
        <time>2015-10-10T10:52:43Z</time>
      </trkpt>
      <trkpt lat="42.65592" lon="1.96434">
        <ele>1401.26</ele>
        <time>2015-10-10T10:53:12Z</time>
      </trkpt>
      <trkpt lat="42.65592" lon="1.96434">
        <ele>1399.82</ele>
        <time>2015-10-10T10:53:14Z</time>
      </trkpt>
      <trkpt lat="42.65591" lon="1.96433">
        <ele>1400.3</ele>
        <time>2015-10-10T10:53:44Z</time>
      </trkpt>
      <trkpt lat="42.65591" lon="1.96433">
        <ele>1399.82</ele>
        <time>2015-10-10T10:53:58Z</time>
      </trkpt>
      <trkpt lat="42.65592" lon="1.96432">
        <ele>1399.34</ele>
        <time>2015-10-10T10:54:36Z</time>
      </trkpt>
      <trkpt lat="42.65594" lon="1.96427">
        <ele>1400.3</ele>
        <time>2015-10-10T10:55:13Z</time>
      </trkpt>
      <trkpt lat="42.65592" lon="1.9643">
        <ele>1399.82</ele>
        <time>2015-10-10T10:55:35Z</time>
      </trkpt>
      <trkpt lat="42.65591" lon="1.96432">
        <ele>1398.86</ele>
        <time>2015-10-10T10:56:06Z</time>
      </trkpt>
      <trkpt lat="42.65591" lon="1.96432">
        <ele>1398.37</ele>
        <time>2015-10-10T10:56:20Z</time>
      </trkpt>
      <trkpt lat="42.65592" lon="1.96432">
        <ele>1399.82</ele>
        <time>2015-10-10T10:56:44Z</time>
      </trkpt>
      <trkpt lat="42.65593" lon="1.96432">
        <ele>1398.86</ele>
        <time>2015-10-10T10:56:57Z</time>
      </trkpt>
      <trkpt lat="42.65593" lon="1.96434">
        <ele>1399.34</ele>
        <time>2015-10-10T10:57:17Z</time>
      </trkpt>
      <trkpt lat="42.65592" lon="1.96431">
        <ele>1398.86</ele>
        <time>2015-10-10T10:57:36Z</time>
      </trkpt>
      <trkpt lat="42.65593" lon="1.9643">
        <ele>1398.37</ele>
        <time>2015-10-10T10:57:54Z</time>
      </trkpt>
      <trkpt lat="42.65592" lon="1.96429">
        <ele>1398.37</ele>
        <time>2015-10-10T10:59:03Z</time>
      </trkpt>
      <trkpt lat="42.65594" lon="1.96427">
        <ele>1398.86</ele>
        <time>2015-10-10T10:59:20Z</time>
      </trkpt>
      <trkpt lat="42.65592" lon="1.9643">
        <ele>1398.37</ele>
        <time>2015-10-10T11:00:06Z</time>
      </trkpt>
      <trkpt lat="42.65592" lon="1.96429">
        <ele>1399.34</ele>
        <time>2015-10-10T11:00:11Z</time>
      </trkpt>
      <trkpt lat="42.65593" lon="1.96429">
        <ele>1397.89</ele>
        <time>2015-10-10T11:00:17Z</time>
      </trkpt>
      <trkpt lat="42.65593" lon="1.96429">
        <ele>1399.82</ele>
        <time>2015-10-10T11:00:19Z</time>
      </trkpt>
      <trkpt lat="42.65592" lon="1.9643">
        <ele>1398.37</ele>
        <time>2015-10-10T11:00:44Z</time>
      </trkpt>
      <trkpt lat="42.65591" lon="1.9643">
        <ele>1399.82</ele>
        <time>2015-10-10T11:01:01Z</time>
      </trkpt>
      <trkpt lat="42.6559" lon="1.96431">
        <ele>1398.37</ele>
        <time>2015-10-10T11:01:12Z</time>
      </trkpt>
      <trkpt lat="42.65578" lon="1.9643">
        <ele>1398.86</ele>
        <time>2015-10-10T11:01:22Z</time>
      </trkpt>
      <trkpt lat="42.65564" lon="1.96423">
        <ele>1398.86</ele>
        <time>2015-10-10T11:01:38Z</time>
      </trkpt>
      <trkpt lat="42.65548" lon="1.96416">
        <ele>1398.86</ele>
        <time>2015-10-10T11:01:54Z</time>
      </trkpt>
      <trkpt lat="42.65544" lon="1.96414">
        <ele>1399.82</ele>
        <time>2015-10-10T11:01:59Z</time>
      </trkpt>
      <trkpt lat="42.65525" lon="1.96408">
        <ele>1400.78</ele>
        <time>2015-10-10T11:02:17Z</time>
      </trkpt>
      <trkpt lat="42.65508" lon="1.96402">
        <ele>1401.26</ele>
        <time>2015-10-10T11:02:33Z</time>
      </trkpt>
      <trkpt lat="42.6549" lon="1.96395">
        <ele>1402.22</ele>
        <time>2015-10-10T11:02:52Z</time>
      </trkpt>
      <trkpt lat="42.65475" lon="1.96387">
        <ele>1403.66</ele>
        <time>2015-10-10T11:03:05Z</time>
      </trkpt>
      <trkpt lat="42.65456" lon="1.96371">
        <ele>1406.55</ele>
        <time>2015-10-10T11:03:26Z</time>
      </trkpt>
      <trkpt lat="42.65438" lon="1.96355">
        <ele>1407.03</ele>
        <time>2015-10-10T11:03:42Z</time>
      </trkpt>
      <trkpt lat="42.65424" lon="1.96347">
        <ele>1409.43</ele>
        <time>2015-10-10T11:03:56Z</time>
      </trkpt>
      <trkpt lat="42.65409" lon="1.9634">
        <ele>1409.91</ele>
        <time>2015-10-10T11:04:11Z</time>
      </trkpt>
      <trkpt lat="42.65387" lon="1.96325">
        <ele>1409.91</ele>
        <time>2015-10-10T11:04:31Z</time>
      </trkpt>
      <trkpt lat="42.65383" lon="1.96324">
        <ele>1409.91</ele>
        <time>2015-10-10T11:04:36Z</time>
      </trkpt>
      <trkpt lat="42.65378" lon="1.96319">
        <ele>1410.39</ele>
        <time>2015-10-10T11:04:42Z</time>
      </trkpt>
      <trkpt lat="42.65361" lon="1.96312">
        <ele>1411.35</ele>
        <time>2015-10-10T11:04:57Z</time>
      </trkpt>
      <trkpt lat="42.65341" lon="1.963">
        <ele>1411.35</ele>
        <time>2015-10-10T11:05:15Z</time>
      </trkpt>
      <trkpt lat="42.6534" lon="1.96299">
        <ele>1412.31</ele>
        <time>2015-10-10T11:05:16Z</time>
      </trkpt>
      <trkpt lat="42.65324" lon="1.96294">
        <ele>1412.31</ele>
        <time>2015-10-10T11:05:32Z</time>
      </trkpt>
      <trkpt lat="42.65318" lon="1.96295">
        <ele>1413.76</ele>
        <time>2015-10-10T11:05:46Z</time>
      </trkpt>
      <trkpt lat="42.65317" lon="1.96295">
        <ele>1413.76</ele>
        <time>2015-10-10T11:06:00Z</time>
      </trkpt>
      <trkpt lat="42.65316" lon="1.96294">
        <ele>1414.24</ele>
        <time>2015-10-10T11:06:15Z</time>
      </trkpt>
      <trkpt lat="42.65306" lon="1.9629">
        <ele>1414.24</ele>
        <time>2015-10-10T11:06:29Z</time>
      </trkpt>
      <trkpt lat="42.65303" lon="1.96289">
        <ele>1416.16</ele>
        <time>2015-10-10T11:06:32Z</time>
      </trkpt>
      <trkpt lat="42.65289" lon="1.96285">
        <ele>1417.6</ele>
        <time>2015-10-10T11:06:47Z</time>
      </trkpt>
      <trkpt lat="42.65281" lon="1.96281">
        <ele>1420.49</ele>
        <time>2015-10-10T11:06:56Z</time>
      </trkpt>
      <trkpt lat="42.6527" lon="1.96274">
        <ele>1420.49</ele>
        <time>2015-10-10T11:07:10Z</time>
      </trkpt>
      <trkpt lat="42.65257" lon="1.96268">
        <ele>1423.37</ele>
        <time>2015-10-10T11:07:28Z</time>
      </trkpt>
      <trkpt lat="42.65254" lon="1.96266">
        <ele>1422.89</ele>
        <time>2015-10-10T11:07:33Z</time>
      </trkpt>
      <trkpt lat="42.65244" lon="1.96254">
        <ele>1424.81</ele>
        <time>2015-10-10T11:07:48Z</time>
      </trkpt>
      <trkpt lat="42.65243" lon="1.96253">
        <ele>1426.73</ele>
        <time>2015-10-10T11:07:50Z</time>
      </trkpt>
      <trkpt lat="42.65241" lon="1.96252">
        <ele>1426.73</ele>
        <time>2015-10-10T11:07:53Z</time>
      </trkpt>
      <trkpt lat="42.65239" lon="1.96245">
        <ele>1427.21</ele>
        <time>2015-10-10T11:08:00Z</time>
      </trkpt>
      <trkpt lat="42.65228" lon="1.96234">
        <ele>1429.14</ele>
        <time>2015-10-10T11:08:14Z</time>
      </trkpt>
      <trkpt lat="42.65221" lon="1.9623">
        <ele>1430.58</ele>
        <time>2015-10-10T11:08:22Z</time>
      </trkpt>
      <trkpt lat="42.65208" lon="1.96228">
        <ele>1432.02</ele>
        <time>2015-10-10T11:08:36Z</time>
      </trkpt>
      <trkpt lat="42.65194" lon="1.96227">
        <ele>1432.98</ele>
        <time>2015-10-10T11:08:50Z</time>
      </trkpt>
      <trkpt lat="42.65193" lon="1.96227">
        <ele>1433.46</ele>
        <time>2015-10-10T11:08:51Z</time>
      </trkpt>
      <trkpt lat="42.65181" lon="1.96223">
        <ele>1434.42</ele>
        <time>2015-10-10T11:09:05Z</time>
      </trkpt>
      <trkpt lat="42.6517" lon="1.96219">
        <ele>1435.39</ele>
        <time>2015-10-10T11:09:21Z</time>
      </trkpt>
      <trkpt lat="42.65158" lon="1.96215">
        <ele>1435.39</ele>
        <time>2015-10-10T11:09:33Z</time>
      </trkpt>
      <trkpt lat="42.6514" lon="1.96211">
        <ele>1436.35</ele>
        <time>2015-10-10T11:09:50Z</time>
      </trkpt>
      <trkpt lat="42.65119" lon="1.96213">
        <ele>1437.79</ele>
        <time>2015-10-10T11:10:06Z</time>
      </trkpt>
      <trkpt lat="42.65106" lon="1.96214">
        <ele>1438.27</ele>
        <time>2015-10-10T11:10:20Z</time>
      </trkpt>
      <trkpt lat="42.651" lon="1.9622">
        <ele>1439.23</ele>
        <time>2015-10-10T11:10:37Z</time>
      </trkpt>
      <trkpt lat="42.65098" lon="1.96222">
        <ele>1439.23</ele>
        <time>2015-10-10T11:10:59Z</time>
      </trkpt>
      <trkpt lat="42.65096" lon="1.96224">
        <ele>1440.19</ele>
        <time>2015-10-10T11:11:25Z</time>
      </trkpt>
      <trkpt lat="42.65096" lon="1.96224">
        <ele>1439.71</ele>
        <time>2015-10-10T11:11:58Z</time>
      </trkpt>
      <trkpt lat="42.65095" lon="1.96224">
        <ele>1439.71</ele>
        <time>2015-10-10T11:12:02Z</time>
      </trkpt>
      <trkpt lat="42.65076" lon="1.96225">
        <ele>1440.19</ele>
        <time>2015-10-10T11:12:19Z</time>
      </trkpt>
      <trkpt lat="42.65052" lon="1.96223">
        <ele>1441.15</ele>
        <time>2015-10-10T11:12:36Z</time>
      </trkpt>
      <trkpt lat="42.65046" lon="1.96227">
        <ele>1441.15</ele>
        <time>2015-10-10T11:12:53Z</time>
      </trkpt>
      <trkpt lat="42.65044" lon="1.96228">
        <ele>1441.63</ele>
        <time>2015-10-10T11:13:09Z</time>
      </trkpt>
      <trkpt lat="42.65023" lon="1.96224">
        <ele>1441.63</ele>
        <time>2015-10-10T11:13:27Z</time>
      </trkpt>
      <trkpt lat="42.65022" lon="1.96224">
        <ele>1441.63</ele>
        <time>2015-10-10T11:13:28Z</time>
      </trkpt>
      <trkpt lat="42.65004" lon="1.96218">
        <ele>1439.71</ele>
        <time>2015-10-10T11:13:42Z</time>
      </trkpt>
      <trkpt lat="42.64987" lon="1.96208">
        <ele>1438.75</ele>
        <time>2015-10-10T11:13:56Z</time>
      </trkpt>
      <trkpt lat="42.64977" lon="1.96205">
        <ele>1437.79</ele>
        <time>2015-10-10T11:14:04Z</time>
      </trkpt>
      <trkpt lat="42.64955" lon="1.96197">
        <ele>1437.31</ele>
        <time>2015-10-10T11:14:20Z</time>
      </trkpt>
      <trkpt lat="42.64941" lon="1.9619">
        <ele>1435.39</ele>
        <time>2015-10-10T11:14:34Z</time>
      </trkpt>
      <trkpt lat="42.64922" lon="1.96184">
        <ele>1435.39</ele>
        <time>2015-10-10T11:14:49Z</time>
      </trkpt>
      <trkpt lat="42.64919" lon="1.96183">
        <ele>1434.42</ele>
        <time>2015-10-10T11:14:51Z</time>
      </trkpt>
      <trkpt lat="42.64903" lon="1.96177">
        <ele>1434.42</ele>
        <time>2015-10-10T11:15:04Z</time>
      </trkpt>
      <trkpt lat="42.64884" lon="1.96167">
        <ele>1433.94</ele>
        <time>2015-10-10T11:15:20Z</time>
      </trkpt>
      <trkpt lat="42.64866" lon="1.96149">
        <ele>1433.94</ele>
        <time>2015-10-10T11:15:35Z</time>
      </trkpt>
      <trkpt lat="42.64852" lon="1.9614">
        <ele>1432.98</ele>
        <time>2015-10-10T11:15:49Z</time>
      </trkpt>
      <trkpt lat="42.64847" lon="1.96142">
        <ele>1433.46</ele>
        <time>2015-10-10T11:16:03Z</time>
      </trkpt>
      <trkpt lat="42.6483" lon="1.96133">
        <ele>1432.98</ele>
        <time>2015-10-10T11:16:22Z</time>
      </trkpt>
      <trkpt lat="42.64827" lon="1.96132">
        <ele>1434.42</ele>
        <time>2015-10-10T11:16:24Z</time>
      </trkpt>
      <trkpt lat="42.64821" lon="1.96129">
        <ele>1432.98</ele>
        <time>2015-10-10T11:16:29Z</time>
      </trkpt>
      <trkpt lat="42.64813" lon="1.96125">
        <ele>1433.46</ele>
        <time>2015-10-10T11:16:43Z</time>
      </trkpt>
      <trkpt lat="42.64809" lon="1.96122">
        <ele>1434.42</ele>
        <time>2015-10-10T11:17:04Z</time>
      </trkpt>
      <trkpt lat="42.64801" lon="1.96121">
        <ele>1434.91</ele>
        <time>2015-10-10T11:17:16Z</time>
      </trkpt>
      <trkpt lat="42.64793" lon="1.96117">
        <ele>1433.94</ele>
        <time>2015-10-10T11:17:23Z</time>
      </trkpt>
      <trkpt lat="42.64787" lon="1.96115">
        <ele>1434.42</ele>
        <time>2015-10-10T11:17:28Z</time>
      </trkpt>
      <trkpt lat="42.6477" lon="1.96118">
        <ele>1435.39</ele>
        <time>2015-10-10T11:17:42Z</time>
      </trkpt>
      <trkpt lat="42.64761" lon="1.96122">
        <ele>1434.91</ele>
        <time>2015-10-10T11:17:50Z</time>
      </trkpt>
      <trkpt lat="42.64751" lon="1.96124">
        <ele>1434.42</ele>
        <time>2015-10-10T11:17:58Z</time>
      </trkpt>
      <trkpt lat="42.6474" lon="1.96127">
        <ele>1434.91</ele>
        <time>2015-10-10T11:18:07Z</time>
      </trkpt>
      <trkpt lat="42.6472" lon="1.96126">
        <ele>1435.87</ele>
        <time>2015-10-10T11:18:23Z</time>
      </trkpt>
      <trkpt lat="42.64713" lon="1.96127">
        <ele>1435.39</ele>
        <time>2015-10-10T11:18:28Z</time>
      </trkpt>
      <trkpt lat="42.64695" lon="1.96125">
        <ele>1436.35</ele>
        <time>2015-10-10T11:18:43Z</time>
      </trkpt>
      <trkpt lat="42.6468" lon="1.9611">
        <ele>1437.31</ele>
        <time>2015-10-10T11:19:00Z</time>
      </trkpt>
      <trkpt lat="42.64675" lon="1.96108">
        <ele>1436.83</ele>
        <time>2015-10-10T11:19:06Z</time>
      </trkpt>
      <trkpt lat="42.64671" lon="1.96106">
        <ele>1437.79</ele>
        <time>2015-10-10T11:19:10Z</time>
      </trkpt>
      <trkpt lat="42.64659" lon="1.96098">
        <ele>1438.27</ele>
        <time>2015-10-10T11:19:21Z</time>
      </trkpt>
      <trkpt lat="42.64657" lon="1.96096">
        <ele>1438.75</ele>
        <time>2015-10-10T11:19:23Z</time>
      </trkpt>
      <trkpt lat="42.64653" lon="1.96093">
        <ele>1438.75</ele>
        <time>2015-10-10T11:19:27Z</time>
      </trkpt>
      <trkpt lat="42.64645" lon="1.9609">
        <ele>1438.75</ele>
        <time>2015-10-10T11:19:36Z</time>
      </trkpt>
      <trkpt lat="42.64639" lon="1.96091">
        <ele>1439.23</ele>
        <time>2015-10-10T11:19:41Z</time>
      </trkpt>
      <trkpt lat="42.64626" lon="1.96081">
        <ele>1439.71</ele>
        <time>2015-10-10T11:19:53Z</time>
      </trkpt>
      <trkpt lat="42.64622" lon="1.96076">
        <ele>1441.15</ele>
        <time>2015-10-10T11:19:57Z</time>
      </trkpt>
      <trkpt lat="42.64619" lon="1.96074">
        <ele>1440.67</ele>
        <time>2015-10-10T11:20:00Z</time>
      </trkpt>
      <trkpt lat="42.64614" lon="1.96068">
        <ele>1442.11</ele>
        <time>2015-10-10T11:20:07Z</time>
      </trkpt>
      <trkpt lat="42.6461" lon="1.96065">
        <ele>1441.15</ele>
        <time>2015-10-10T11:20:11Z</time>
      </trkpt>
      <trkpt lat="42.64609" lon="1.96063">
        <ele>1442.11</ele>
        <time>2015-10-10T11:20:13Z</time>
      </trkpt>
      <trkpt lat="42.64595" lon="1.96051">
        <ele>1443.56</ele>
        <time>2015-10-10T11:20:28Z</time>
      </trkpt>
      <trkpt lat="42.64591" lon="1.96049">
        <ele>1442.6</ele>
        <time>2015-10-10T11:20:32Z</time>
      </trkpt>
      <trkpt lat="42.64585" lon="1.96046">
        <ele>1443.56</ele>
        <time>2015-10-10T11:20:37Z</time>
      </trkpt>
      <trkpt lat="42.64574" lon="1.96034">
        <ele>1443.56</ele>
        <time>2015-10-10T11:20:50Z</time>
      </trkpt>
      <trkpt lat="42.64572" lon="1.96032">
        <ele>1444.04</ele>
        <time>2015-10-10T11:20:52Z</time>
      </trkpt>
      <trkpt lat="42.64568" lon="1.96028">
        <ele>1443.56</ele>
        <time>2015-10-10T11:20:56Z</time>
      </trkpt>
      <trkpt lat="42.6456" lon="1.96025">
        <ele>1444.52</ele>
        <time>2015-10-10T11:21:03Z</time>
      </trkpt>
      <trkpt lat="42.64548" lon="1.96019">
        <ele>1444.52</ele>
        <time>2015-10-10T11:21:13Z</time>
      </trkpt>
      <trkpt lat="42.64543" lon="1.96016">
        <ele>1446.44</ele>
        <time>2015-10-10T11:21:21Z</time>
      </trkpt>
      <trkpt lat="42.64539" lon="1.96015">
        <ele>1445.48</ele>
        <time>2015-10-10T11:21:25Z</time>
      </trkpt>
      <trkpt lat="42.64535" lon="1.96014">
        <ele>1447.4</ele>
        <time>2015-10-10T11:21:29Z</time>
      </trkpt>
      <trkpt lat="42.64529" lon="1.96012">
        <ele>1446.44</ele>
        <time>2015-10-10T11:21:43Z</time>
      </trkpt>
      <trkpt lat="42.64527" lon="1.96007">
        <ele>1447.4</ele>
        <time>2015-10-10T11:21:53Z</time>
      </trkpt>
      <trkpt lat="42.64522" lon="1.96003">
        <ele>1446.44</ele>
        <time>2015-10-10T11:21:58Z</time>
      </trkpt>
      <trkpt lat="42.64514" lon="1.95998">
        <ele>1445.96</ele>
        <time>2015-10-10T11:22:08Z</time>
      </trkpt>
      <trkpt lat="42.645" lon="1.95987">
        <ele>1445</ele>
        <time>2015-10-10T11:22:22Z</time>
      </trkpt>
      <trkpt lat="42.64491" lon="1.95983">
        <ele>1446.44</ele>
        <time>2015-10-10T11:22:30Z</time>
      </trkpt>
      <trkpt lat="42.64481" lon="1.95979">
        <ele>1446.44</ele>
        <time>2015-10-10T11:22:39Z</time>
      </trkpt>
      <trkpt lat="42.64474" lon="1.95977">
        <ele>1446.44</ele>
        <time>2015-10-10T11:22:44Z</time>
      </trkpt>
      <trkpt lat="42.64471" lon="1.95976">
        <ele>1447.4</ele>
        <time>2015-10-10T11:22:46Z</time>
      </trkpt>
      <trkpt lat="42.64466" lon="1.95974">
        <ele>1446.92</ele>
        <time>2015-10-10T11:22:50Z</time>
      </trkpt>
      <trkpt lat="42.64462" lon="1.95972">
        <ele>1447.4</ele>
        <time>2015-10-10T11:22:54Z</time>
      </trkpt>
      <trkpt lat="42.64459" lon="1.95969">
        <ele>1447.88</ele>
        <time>2015-10-10T11:22:57Z</time>
      </trkpt>
      <trkpt lat="42.64456" lon="1.95963">
        <ele>1447.88</ele>
        <time>2015-10-10T11:23:02Z</time>
      </trkpt>
      <trkpt lat="42.64452" lon="1.95955">
        <ele>1447.88</ele>
        <time>2015-10-10T11:23:07Z</time>
      </trkpt>
      <trkpt lat="42.64442" lon="1.95935">
        <ele>1448.84</ele>
        <time>2015-10-10T11:23:19Z</time>
      </trkpt>
      <trkpt lat="42.64426" lon="1.95925">
        <ele>1449.81</ele>
        <time>2015-10-10T11:23:37Z</time>
      </trkpt>
      <trkpt lat="42.64419" lon="1.95924">
        <ele>1448.84</ele>
        <time>2015-10-10T11:23:51Z</time>
      </trkpt>
      <trkpt lat="42.64408" lon="1.95943">
        <ele>1448.84</ele>
        <time>2015-10-10T11:24:08Z</time>
      </trkpt>
      <trkpt lat="42.644" lon="1.95947">
        <ele>1449.81</ele>
        <time>2015-10-10T11:24:28Z</time>
      </trkpt>
      <trkpt lat="42.64403" lon="1.95951">
        <ele>1450.29</ele>
        <time>2015-10-10T11:24:42Z</time>
      </trkpt>
      <trkpt lat="42.64399" lon="1.95952">
        <ele>1449.32</ele>
        <time>2015-10-10T11:24:54Z</time>
      </trkpt>
      <trkpt lat="42.64397" lon="1.95953">
        <ele>1448.36</ele>
        <time>2015-10-10T11:25:09Z</time>
      </trkpt>
      <trkpt lat="42.64396" lon="1.95958">
        <ele>1449.32</ele>
        <time>2015-10-10T11:25:18Z</time>
      </trkpt>
      <trkpt lat="42.64395" lon="1.95958">
        <ele>1449.81</ele>
        <time>2015-10-10T11:25:30Z</time>
      </trkpt>
      <trkpt lat="42.64389" lon="1.95963">
        <ele>1449.81</ele>
        <time>2015-10-10T11:25:46Z</time>
      </trkpt>
      <trkpt lat="42.64377" lon="1.95963">
        <ele>1451.73</ele>
        <time>2015-10-10T11:26:08Z</time>
      </trkpt>
      <trkpt lat="42.64371" lon="1.95952">
        <ele>1452.21</ele>
        <time>2015-10-10T11:26:20Z</time>
      </trkpt>
      <trkpt lat="42.64356" lon="1.95944">
        <ele>1454.13</ele>
        <time>2015-10-10T11:26:41Z</time>
      </trkpt>
      <trkpt lat="42.64353" lon="1.95942">
        <ele>1454.13</ele>
        <time>2015-10-10T11:27:01Z</time>
      </trkpt>
      <trkpt lat="42.64344" lon="1.95941">
        <ele>1454.13</ele>
        <time>2015-10-10T11:27:15Z</time>
      </trkpt>
      <trkpt lat="42.64344" lon="1.95941">
        <ele>1454.13</ele>
        <time>2015-10-10T11:27:16Z</time>
      </trkpt>
      <trkpt lat="42.64339" lon="1.95943">
        <ele>1456.05</ele>
        <time>2015-10-10T11:27:21Z</time>
      </trkpt>
      <trkpt lat="42.64327" lon="1.95933">
        <ele>1456.53</ele>
        <time>2015-10-10T11:27:36Z</time>
      </trkpt>
      <trkpt lat="42.64321" lon="1.95928">
        <ele>1455.09</ele>
        <time>2015-10-10T11:27:42Z</time>
      </trkpt>
      <trkpt lat="42.64306" lon="1.95915">
        <ele>1457.02</ele>
        <time>2015-10-10T11:28:01Z</time>
      </trkpt>
      <trkpt lat="42.64293" lon="1.95904">
        <ele>1456.53</ele>
        <time>2015-10-10T11:28:16Z</time>
      </trkpt>
      <trkpt lat="42.64283" lon="1.959">
        <ele>1456.53</ele>
        <time>2015-10-10T11:28:29Z</time>
      </trkpt>
      <trkpt lat="42.64276" lon="1.95907">
        <ele>1457.98</ele>
        <time>2015-10-10T11:28:48Z</time>
      </trkpt>
      <trkpt lat="42.64267" lon="1.95898">
        <ele>1457.98</ele>
        <time>2015-10-10T11:29:06Z</time>
      </trkpt>
      <trkpt lat="42.64265" lon="1.95897">
        <ele>1457.02</ele>
        <time>2015-10-10T11:29:09Z</time>
      </trkpt>
      <trkpt lat="42.64259" lon="1.95888">
        <ele>1458.94</ele>
        <time>2015-10-10T11:29:25Z</time>
      </trkpt>
      <trkpt lat="42.64262" lon="1.95885">
        <ele>1457.98</ele>
        <time>2015-10-10T11:29:38Z</time>
      </trkpt>
      <trkpt lat="42.64258" lon="1.95874">
        <ele>1458.94</ele>
        <time>2015-10-10T11:29:53Z</time>
      </trkpt>
      <trkpt lat="42.64249" lon="1.95861">
        <ele>1459.9</ele>
        <time>2015-10-10T11:30:10Z</time>
      </trkpt>
      <trkpt lat="42.64242" lon="1.9585">
        <ele>1459.9</ele>
        <time>2015-10-10T11:30:24Z</time>
      </trkpt>
      <trkpt lat="42.64234" lon="1.95829">
        <ele>1460.86</ele>
        <time>2015-10-10T11:30:43Z</time>
      </trkpt>
      <trkpt lat="42.64233" lon="1.95824">
        <ele>1461.82</ele>
        <time>2015-10-10T11:30:47Z</time>
      </trkpt>
      <trkpt lat="42.64233" lon="1.9581">
        <ele>1462.3</ele>
        <time>2015-10-10T11:31:01Z</time>
      </trkpt>
      <trkpt lat="42.64226" lon="1.95789">
        <ele>1463.26</ele>
        <time>2015-10-10T11:31:17Z</time>
      </trkpt>
      <trkpt lat="42.64219" lon="1.95775">
        <ele>1462.78</ele>
        <time>2015-10-10T11:31:36Z</time>
      </trkpt>
      <trkpt lat="42.64214" lon="1.9576">
        <ele>1465.19</ele>
        <time>2015-10-10T11:31:50Z</time>
      </trkpt>
      <trkpt lat="42.64212" lon="1.95753">
        <ele>1464.23</ele>
        <time>2015-10-10T11:31:56Z</time>
      </trkpt>
      <trkpt lat="42.64211" lon="1.95746">
        <ele>1464.71</ele>
        <time>2015-10-10T11:32:01Z</time>
      </trkpt>
      <trkpt lat="42.64211" lon="1.95743">
        <ele>1465.19</ele>
        <time>2015-10-10T11:32:03Z</time>
      </trkpt>
      <trkpt lat="42.64204" lon="1.95728">
        <ele>1464.71</ele>
        <time>2015-10-10T11:32:16Z</time>
      </trkpt>
      <trkpt lat="42.64201" lon="1.9572">
        <ele>1465.67</ele>
        <time>2015-10-10T11:32:23Z</time>
      </trkpt>
      <trkpt lat="42.64196" lon="1.9571">
        <ele>1465.67</ele>
        <time>2015-10-10T11:32:31Z</time>
      </trkpt>
      <trkpt lat="42.64198" lon="1.957">
        <ele>1468.55</ele>
        <time>2015-10-10T11:32:42Z</time>
      </trkpt>
      <trkpt lat="42.642" lon="1.95695">
        <ele>1467.59</ele>
        <time>2015-10-10T11:32:47Z</time>
      </trkpt>
      <trkpt lat="42.64199" lon="1.95681">
        <ele>1467.59</ele>
        <time>2015-10-10T11:32:57Z</time>
      </trkpt>
      <trkpt lat="42.64193" lon="1.95663">
        <ele>1469.99</ele>
        <time>2015-10-10T11:33:13Z</time>
      </trkpt>
      <trkpt lat="42.64187" lon="1.95653">
        <ele>1472.88</ele>
        <time>2015-10-10T11:33:28Z</time>
      </trkpt>
      <trkpt lat="42.64179" lon="1.95647">
        <ele>1472.88</ele>
        <time>2015-10-10T11:33:49Z</time>
      </trkpt>
      <trkpt lat="42.64172" lon="1.95638">
        <ele>1475.28</ele>
        <time>2015-10-10T11:34:05Z</time>
      </trkpt>
      <trkpt lat="42.6417" lon="1.95635">
        <ele>1475.76</ele>
        <time>2015-10-10T11:34:09Z</time>
      </trkpt>
      <trkpt lat="42.64161" lon="1.95628">
        <ele>1478.16</ele>
        <time>2015-10-10T11:34:27Z</time>
      </trkpt>
      <trkpt lat="42.64159" lon="1.95618">
        <ele>1479.13</ele>
        <time>2015-10-10T11:34:43Z</time>
      </trkpt>
      <trkpt lat="42.64156" lon="1.95608">
        <ele>1479.61</ele>
        <time>2015-10-10T11:34:54Z</time>
      </trkpt>
      <trkpt lat="42.64151" lon="1.956">
        <ele>1481.53</ele>
        <time>2015-10-10T11:35:07Z</time>
      </trkpt>
      <trkpt lat="42.64144" lon="1.95595">
        <ele>1482.97</ele>
        <time>2015-10-10T11:35:24Z</time>
      </trkpt>
      <trkpt lat="42.64129" lon="1.95601">
        <ele>1484.89</ele>
        <time>2015-10-10T11:35:42Z</time>
      </trkpt>
      <trkpt lat="42.64126" lon="1.95597">
        <ele>1485.85</ele>
        <time>2015-10-10T11:35:55Z</time>
      </trkpt>
      <trkpt lat="42.64126" lon="1.95597">
        <ele>1486.82</ele>
        <time>2015-10-10T11:35:57Z</time>
      </trkpt>
      <trkpt lat="42.64115" lon="1.95614">
        <ele>1487.78</ele>
        <time>2015-10-10T11:36:38Z</time>
      </trkpt>
      <trkpt lat="42.6411" lon="1.95619">
        <ele>1490.66</ele>
        <time>2015-10-10T11:36:50Z</time>
      </trkpt>
      <trkpt lat="42.641" lon="1.95626">
        <ele>1493.06</ele>
        <time>2015-10-10T11:37:08Z</time>
      </trkpt>
      <trkpt lat="42.64084" lon="1.95622">
        <ele>1493.55</ele>
        <time>2015-10-10T11:37:28Z</time>
      </trkpt>
      <trkpt lat="42.64086" lon="1.95627">
        <ele>1494.99</ele>
        <time>2015-10-10T11:37:41Z</time>
      </trkpt>
      <trkpt lat="42.64089" lon="1.95627">
        <ele>1496.91</ele>
        <time>2015-10-10T11:38:12Z</time>
      </trkpt>
      <trkpt lat="42.6408" lon="1.95622">
        <ele>1500.27</ele>
        <time>2015-10-10T11:38:31Z</time>
      </trkpt>
      <trkpt lat="42.64082" lon="1.95616">
        <ele>1502.2</ele>
        <time>2015-10-10T11:38:50Z</time>
      </trkpt>
      <trkpt lat="42.64082" lon="1.95615">
        <ele>1502.2</ele>
        <time>2015-10-10T11:38:51Z</time>
      </trkpt>
      <trkpt lat="42.64079" lon="1.9561">
        <ele>1504.12</ele>
        <time>2015-10-10T11:39:12Z</time>
      </trkpt>
      <trkpt lat="42.64076" lon="1.95612">
        <ele>1503.16</ele>
        <time>2015-10-10T11:39:25Z</time>
      </trkpt>
      <trkpt lat="42.64085" lon="1.9559">
        <ele>1504.12</ele>
        <time>2015-10-10T11:39:44Z</time>
      </trkpt>
      <trkpt lat="42.64084" lon="1.95586">
        <ele>1506.04</ele>
        <time>2015-10-10T11:39:50Z</time>
      </trkpt>
      <trkpt lat="42.64083" lon="1.95575">
        <ele>1507.48</ele>
        <time>2015-10-10T11:40:03Z</time>
      </trkpt>
      <trkpt lat="42.64088" lon="1.95571">
        <ele>1509.41</ele>
        <time>2015-10-10T11:40:18Z</time>
      </trkpt>
      <trkpt lat="42.64087" lon="1.95565">
        <ele>1510.85</ele>
        <time>2015-10-10T11:40:33Z</time>
      </trkpt>
      <trkpt lat="42.64071" lon="1.95562">
        <ele>1513.73</ele>
        <time>2015-10-10T11:40:50Z</time>
      </trkpt>
      <trkpt lat="42.64077" lon="1.95553">
        <ele>1516.14</ele>
        <time>2015-10-10T11:41:06Z</time>
      </trkpt>
      <trkpt lat="42.64075" lon="1.95538">
        <ele>1515.18</ele>
        <time>2015-10-10T11:41:26Z</time>
      </trkpt>
      <trkpt lat="42.64074" lon="1.95526">
        <ele>1515.66</ele>
        <time>2015-10-10T11:41:43Z</time>
      </trkpt>
      <trkpt lat="42.64075" lon="1.95522">
        <ele>1515.66</ele>
        <time>2015-10-10T11:41:51Z</time>
      </trkpt>
      <trkpt lat="42.64073" lon="1.95507">
        <ele>1516.14</ele>
        <time>2015-10-10T11:42:07Z</time>
      </trkpt>
      <trkpt lat="42.6407" lon="1.95492">
        <ele>1517.1</ele>
        <time>2015-10-10T11:42:23Z</time>
      </trkpt>
      <trkpt lat="42.64065" lon="1.95479">
        <ele>1519.02</ele>
        <time>2015-10-10T11:42:41Z</time>
      </trkpt>
      <trkpt lat="42.64066" lon="1.95471">
        <ele>1519.5</ele>
        <time>2015-10-10T11:42:56Z</time>
      </trkpt>
      <trkpt lat="42.6406" lon="1.95462">
        <ele>1520.46</ele>
        <time>2015-10-10T11:43:12Z</time>
      </trkpt>
      <trkpt lat="42.64057" lon="1.95464">
        <ele>1521.42</ele>
        <time>2015-10-10T11:43:29Z</time>
      </trkpt>
      <trkpt lat="42.64054" lon="1.95448">
        <ele>1522.87</ele>
        <time>2015-10-10T11:43:46Z</time>
      </trkpt>
      <trkpt lat="42.64042" lon="1.95438">
        <ele>1525.75</ele>
        <time>2015-10-10T11:44:11Z</time>
      </trkpt>
      <trkpt lat="42.64046" lon="1.95427">
        <ele>1527.67</ele>
        <time>2015-10-10T11:44:22Z</time>
      </trkpt>
      <trkpt lat="42.64048" lon="1.95412">
        <ele>1527.67</ele>
        <time>2015-10-10T11:44:38Z</time>
      </trkpt>
      <trkpt lat="42.64048" lon="1.95398">
        <ele>1529.59</ele>
        <time>2015-10-10T11:44:56Z</time>
      </trkpt>
      <trkpt lat="42.64053" lon="1.95377">
        <ele>1531.52</ele>
        <time>2015-10-10T11:45:18Z</time>
      </trkpt>
      <trkpt lat="42.64058" lon="1.95365">
        <ele>1534.4</ele>
        <time>2015-10-10T11:45:41Z</time>
      </trkpt>
      <trkpt lat="42.64053" lon="1.95363">
        <ele>1535.84</ele>
        <time>2015-10-10T11:45:55Z</time>
      </trkpt>
      <trkpt lat="42.6406" lon="1.95357">
        <ele>1536.8</ele>
        <time>2015-10-10T11:46:16Z</time>
      </trkpt>
      <trkpt lat="42.64061" lon="1.95354">
        <ele>1536.8</ele>
        <time>2015-10-10T11:46:32Z</time>
      </trkpt>
      <trkpt lat="42.64053" lon="1.95343">
        <ele>1538.25</ele>
        <time>2015-10-10T11:46:50Z</time>
      </trkpt>
      <trkpt lat="42.64044" lon="1.95329">
        <ele>1541.13</ele>
        <time>2015-10-10T11:47:08Z</time>
      </trkpt>
      <trkpt lat="42.64035" lon="1.95321">
        <ele>1540.65</ele>
        <time>2015-10-10T11:47:23Z</time>
      </trkpt>
      <trkpt lat="42.64029" lon="1.95319">
        <ele>1542.09</ele>
        <time>2015-10-10T11:47:37Z</time>
      </trkpt>
      <trkpt lat="42.64028" lon="1.95315">
        <ele>1542.57</ele>
        <time>2015-10-10T11:48:00Z</time>
      </trkpt>
      <trkpt lat="42.64031" lon="1.95302">
        <ele>1545.46</ele>
        <time>2015-10-10T11:48:18Z</time>
      </trkpt>
      <trkpt lat="42.64027" lon="1.95292">
        <ele>1546.9</ele>
        <time>2015-10-10T11:48:36Z</time>
      </trkpt>
      <trkpt lat="42.64025" lon="1.95285">
        <ele>1549.3</ele>
        <time>2015-10-10T11:48:46Z</time>
      </trkpt>
      <trkpt lat="42.64021" lon="1.95278">
        <ele>1549.3</ele>
        <time>2015-10-10T11:49:00Z</time>
      </trkpt>
      <trkpt lat="42.64018" lon="1.95275">
        <ele>1549.78</ele>
        <time>2015-10-10T11:49:16Z</time>
      </trkpt>
      <trkpt lat="42.64018" lon="1.95272">
        <ele>1551.22</ele>
        <time>2015-10-10T11:49:29Z</time>
      </trkpt>
      <trkpt lat="42.64016" lon="1.95263">
        <ele>1553.15</ele>
        <time>2015-10-10T11:49:42Z</time>
      </trkpt>
      <trkpt lat="42.64016" lon="1.95258">
        <ele>1554.11</ele>
        <time>2015-10-10T11:49:50Z</time>
      </trkpt>
      <trkpt lat="42.64012" lon="1.95253">
        <ele>1555.55</ele>
        <time>2015-10-10T11:50:03Z</time>
      </trkpt>
      <trkpt lat="42.64011" lon="1.95251">
        <ele>1555.55</ele>
        <time>2015-10-10T11:50:06Z</time>
      </trkpt>
    </trkseg>
  </trk>
</gpx>